Wetterdaten: Samstag, 25.11.2017
Datum Zeit Temp. Aussen Temp. o. S. +5cm Feuchte Auss BlattFeu 1 Luftdruck Regen Sonnenschein Regendauer Solar Windben Empfang
25.11.2017 00:00 6,9 C 6,7 C 5,6 C 96 % 15 lf 1010,3 hPa 0,0 l/m 0 min 2 min 0 W/m 0,0 km/h (0 Bft) 97,87 %
25.11.2017 00:02 6,9 C 6,7 C 5,6 C 96 % 15 lf 1010,3 hPa 0,0 l/m 0 min 2 min 0 W/m 0,0 km/h (0 Bft) 96,97 %
25.11.2017 00:04 6,9 C 6,7 C 5,6 C 96 % 15 lf 1010,3 hPa 0,0 l/m 0 min 2 min 0 W/m 0,0 km/h (0 Bft) 97,87 %
25.11.2017 00:07 6,9 C 6,7 C 5,6 C 96 % 15 lf 1010,1 hPa 0,0 l/m 0 min 3 min 0 W/m 0,0 km/h (0 Bft) 97,87 %
25.11.2017 00:08 6,9 C 6,7 C 5,6 C 96 % 15 lf 1010,1 hPa 0,0 l/m 0 min 1 min 0 W/m 0,0 km/h (0 Bft) 97,39 %
25.11.2017 00:10 6,9 C 6,1 C 5,6 C 96 % 15 lf 1010,1 hPa 0,0 l/m 0 min 0 min 0 W/m 0,0 km/h (0 Bft) 97,14 %
25.11.2017 00:12 6,9 C 6,1 C 5,6 C 97 % 15 lf 1010,1 hPa 0,0 l/m 0 min 2 min 0 W/m 2,3 km/h (1 Bft) 95,74 %
25.11.2017 00:14 6,9 C 6,7 C 5,6 C 97 % 15 lf 1010,0 hPa 0,0 l/m 0 min 0 min 0 W/m 4,5 km/h (1 Bft) 97,83 %
25.11.2017 00:16 6,9 C 6,7 C 5,6 C 97 % 15 lf 1010,1 hPa 0,0 l/m 0 min 0 min 0 W/m 6,8 km/h (2 Bft) 93,62 %
25.11.2017 00:18 6,9 C 6,1 C 5,6 C 97 % 15 lf 1010,1 hPa 0,0 l/m 0 min 0 min 0 W/m 6,8 km/h (2 Bft) 95,74 %
25.11.2017 00:20 6,9 C 6,1 C 5,6 C 97 % 15 lf 1010,0 hPa 0,0 l/m 0 min 0 min 0 W/m 6,8 km/h (2 Bft) 95,74 %
25.11.2017 00:22 6,8 C 6,1 C 5,6 C 97 % 15 lf 1010,0 hPa 0,0 l/m 0 min 0 min 0 W/m 6,8 km/h (2 Bft) 95,74 %
25.11.2017 00:24 6,8 C 6,1 C 5,6 C 97 % 15 lf 1010,0 hPa 0,0 l/m 0 min 0 min 0 W/m 6,8 km/h (2 Bft) 93,62 %
25.11.2017 00:26 6,8 C 6,1 C 5,6 C 97 % 15 lf 1010,0 hPa 0,0 l/m 0 min 0 min 0 W/m 6,8 km/h (2 Bft) 95,74 %
25.11.2017 00:28 6,8 C 6,1 C 5,6 C 97 % 15 lf 1009,9 hPa 0,0 l/m 0 min 0 min 0 W/m 11,3 km/h (2 Bft) 91,30 %
25.11.2017 00:30 6,8 C 6,1 C 5,6 C 97 % 15 lf 1009,9 hPa 0,0 l/m 0 min 0 min 0 W/m 9,0 km/h (2 Bft) 95,74 %
25.11.2017 00:32 6,8 C 6,1 C 5,6 C 97 % 15 lf 1010,0 hPa 0,0 l/m 0 min 0 min 0 W/m 9,0 km/h (2 Bft) 93,62 %
25.11.2017 00:34 6,8 C 6,1 C 5,6 C 97 % 15 lf 1010,0 hPa 0,0 l/m 0 min 2 min 0 W/m 9,0 km/h (2 Bft) 95,74 %
25.11.2017 00:36 6,8 C 6,1 C 5,6 C 97 % 15 lf 1010,0 hPa 0,0 l/m 0 min 0 min 0 W/m 6,8 km/h (2 Bft) 95,74 %
25.11.2017 00:38 6,8 C 6,1 C 5,6 C 97 % 15 lf 1009,9 hPa 0,0 l/m 0 min 0 min 0 W/m 6,8 km/h (2 Bft) 97,83 %
25.11.2017 00:40 6,8 C 6,1 C 5,6 C 97 % 15 lf 1009,8 hPa 0,0 l/m 0 min 0 min 0 W/m 6,8 km/h (2 Bft) 97,87 %
25.11.2017 00:42 6,8 C 6,1 C 5,6 C 97 % 15 lf 1009,8 hPa 0,0 l/m 0 min 0 min 0 W/m 6,8 km/h (2 Bft) 97,87 %
25.11.2017 00:44 6,8 C 6,1 C 5,6 C 97 % 15 lf 1009,8 hPa 0,0 l/m 0 min 0 min 0 W/m 6,8 km/h (2 Bft) 95,74 %
25.11.2017 00:46 6,8 C 6,1 C 5,6 C 97 % 15 lf 1009,8 hPa 0,0 l/m 0 min 2 min 0 W/m 9,0 km/h (2 Bft) 95,74 %
25.11.2017 00:48 6,8 C 6,1 C 5,6 C 96 % 15 lf 1009,8 hPa 0,0 l/m 0 min 0 min 0 W/m 11,3 km/h (2 Bft) 97,87 %
25.11.2017 00:50 6,8 C 6,1 C 5,6 C 97 % 15 lf 1009,8 hPa 0,0 l/m 0 min 0 min 0 W/m 9,0 km/h (2 Bft) 95,65 %
25.11.2017 00:52 6,8 C 6,1 C 5,6 C 96 % 15 lf 1009,7 hPa 0,0 l/m 0 min 2 min 0 W/m 9,0 km/h (2 Bft) 97,87 %
25.11.2017 00:54 6,7 C 6,1 C 5,6 C 96 % 15 lf 1009,7 hPa 0,0 l/m 0 min 0 min 0 W/m 18,0 km/h (3 Bft) 95,74 %
25.11.2017 00:56 6,7 C 6,1 C 5,6 C 96 % 15 lf 1009,8 hPa 0,0 l/m 0 min 2 min 0 W/m 15,8 km/h (3 Bft) 100,00 %
25.11.2017 00:58 6,7 C 6,1 C 5,6 C 97 % 15 lf 1009,8 hPa 0,0 l/m 0 min 2 min 0 W/m 9,0 km/h (2 Bft) 100,00 %
25.11.2017 01:00 6,7 C 6,1 C 5,6 C 97 % 15 lf 1009,7 hPa 0,0 l/m 0 min 2 min 0 W/m 11,3 km/h (2 Bft) 100,00 %
25.11.2017 01:02 6,7 C 6,1 C 5,6 C 97 % 15 lf 1009,7 hPa 0,0 l/m 0 min 2 min 0 W/m 15,8 km/h (3 Bft) 97,83 %
25.11.2017 01:04 6,7 C 6,1 C 5,0 C 97 % 15 lf 1009,7 hPa 0,2 l/m 0 min 2 min 0 W/m 20,3 km/h (4 Bft) 100,00 %
25.11.2017 01:06 6,7 C 6,1 C 5,0 C 97 % 15 lf 1009,7 hPa 0,0 l/m 0 min 2 min 0 W/m 24,8 km/h (4 Bft) 100,00 %
25.11.2017 01:08 6,6 C 6,1 C 5,0 C 97 % 15 lf 1009,7 hPa 0,0 l/m 0 min 2 min 0 W/m 22,5 km/h (4 Bft) 100,00 %
25.11.2017 01:10 6,5 C 6,1 C 5,0 C 97 % 15 lf 1009,7 hPa 0,0 l/m 0 min 2 min 0 W/m 20,3 km/h (4 Bft) 97,87 %
25.11.2017 01:12 6,4 C 5,6 C 5,0 C 97 % 15 lf 1009,7 hPa 0,2 l/m 0 min 2 min 0 W/m 20,3 km/h (4 Bft) 93,62 %
25.11.2017 01:14 6,4 C 5,6 C 5,0 C 96 % 15 lf 1009,8 hPa 0,0 l/m 0 min 2 min 0 W/m 15,8 km/h (3 Bft) 97,83 %
25.11.2017 01:16 6,4 C 5,6 C 5,0 C 96 % 15 lf 1009,8 hPa 0,2 l/m 0 min 2 min 0 W/m 15,8 km/h (3 Bft) 95,74 %
25.11.2017 01:18 6,3 C 5,6 C 5,0 C 96 % 15 lf 1009,9 hPa 0,4 l/m 0 min 2 min 0 W/m 20,3 km/h (4 Bft) 97,87 %
25.11.2017 01:20 6,3 C 5,6 C 5,0 C 96 % 15 lf 1009,9 hPa 0,2 l/m 0 min 2 min 0 W/m 13,5 km/h (3 Bft) 97,87 %
25.11.2017 01:22 6,3 C 5,6 C 5,0 C 96 % 15 lf 1009,9 hPa 0,2 l/m 0 min 2 min 0 W/m 13,5 km/h (3 Bft) 97,87 %
25.11.2017 01:24 6,3 C 5,6 C 5,0 C 97 % 15 lf 1009,8 hPa 0,0 l/m 0 min 2 min 0 W/m 13,5 km/h (3 Bft) 97,87 %
25.11.2017 01:26 6,2 C 5,6 C 4,4 C 97 % 15 lf 1009,8 hPa 0,2 l/m 0 min 2 min 0 W/m 9,0 km/h (2 Bft) 97,83 %
25.11.2017 01:28 6,2 C 5,6 C 4,4 C 97 % 15 lf 1009,8 hPa 0,0 l/m 0 min 2 min 0 W/m 11,3 km/h (2 Bft) 97,87 %
25.11.2017 01:30 6,2 C 5,6 C 4,4 C 97 % 15 lf 1009,8 hPa 0,2 l/m 0 min 2 min 0 W/m 20,3 km/h (4 Bft) 93,62 %
25.11.2017 01:32 6,1 C 5,0 C 4,4 C 96 % 15 lf 1009,8 hPa 0,0 l/m 0 min 2 min 0 W/m 18,0 km/h (3 Bft) 97,87 %
25.11.2017 01:34 6,0 C 5,0 C 4,4 C 96 % 15 lf 1009,7 hPa 0,2 l/m 0 min 2 min 0 W/m 13,5 km/h (3 Bft) 97,87 %
25.11.2017 01:36 5,9 C 5,0 C 4,4 C 96 % 15 lf 1009,7 hPa 0,0 l/m 0 min 2 min 0 W/m 20,3 km/h (4 Bft) 97,87 %
25.11.2017 01:38 5,9 C 5,0 C 4,4 C 96 % 15 lf 1009,7 hPa 0,2 l/m 0 min 2 min 0 W/m 15,8 km/h (3 Bft) 97,83 %
25.11.2017 01:40 5,9 C 5,0 C 4,4 C 96 % 15 lf 1009,7 hPa 0,0 l/m 0 min 2 min 0 W/m 15,8 km/h (3 Bft) 95,74 %
25.11.2017 01:42 5,8 C 5,0 C 4,4 C 96 % 15 lf 1009,7 hPa 0,2 l/m 0 min 2 min 0 W/m 15,8 km/h (3 Bft) 95,74 %
25.11.2017 01:44 5,8 C 5,0 C 4,4 C 96 % 15 lf 1009,7 hPa 0,0 l/m 0 min 2 min 0 W/m 15,8 km/h (3 Bft) 97,87 %
25.11.2017 01:46 5,7 C 5,0 C 4,4 C 96 % 15 lf 1009,7 hPa 0,2 l/m 0 min 2 min 0 W/m 20,3 km/h (4 Bft) 97,87 %
25.11.2017 01:48 5,7 C 5,0 C 4,4 C 96 % 15 lf 1009,7 hPa 0,0 l/m 0 min 2 min 0 W/m 20,3 km/h (4 Bft) 97,83 %
25.11.2017 01:50 5,7 C 5,0 C 4,4 C 96 % 15 lf 1009,7 hPa 0,2 l/m 0 min 2 min 0 W/m 15,8 km/h (3 Bft) 97,87 %
25.11.2017 01:52 5,6 C 5,0 C 3,9 C 96 % 15 lf 1009,7 hPa 0,0 l/m 0 min 2 min 0 W/m 27,0 km/h (4 Bft) 97,87 %
25.11.2017 01:54 5,6 C 5,0 C 4,4 C 96 % 15 lf 1009,7 hPa 0,0 l/m 0 min 2 min 0 W/m 24,8 km/h (4 Bft) 97,87 %
25.11.2017 01:56 5,6 C 5,0 C 4,4 C 96 % 15 lf 1009,7 hPa 0,2 l/m 0 min 2 min 0 W/m 15,8 km/h (3 Bft) 97,87 %
25.11.2017 01:58 5,6 C 5,0 C 4,4 C 96 % 15 lf 1009,7 hPa 0,0 l/m 0 min 2 min 0 W/m 20,3 km/h (4 Bft) 100,00 %
25.11.2017 02:00 5,6 C 5,0 C 3,9 C 96 % 15 lf 1009,7 hPa 0,0 l/m 0 min 2 min 0 W/m 18,0 km/h (3 Bft) 97,83 %
25.11.2017 02:02 5,5 C 5,0 C 3,9 C 96 % 15 lf 1009,6 hPa 0,2 l/m 0 min 2 min 0 W/m 27,0 km/h (4 Bft) 95,74 %
25.11.2017 02:04 5,5 C 5,0 C 3,9 C 97 % 15 lf 1009,7 hPa 0,0 l/m 0 min 2 min 0 W/m 24,8 km/h (4 Bft) 100,00 %
25.11.2017 02:06 5,5 C 5,0 C 3,9 C 97 % 15 lf 1009,7 hPa 0,0 l/m 0 min 2 min 0 W/m 18,0 km/h (3 Bft) 97,87 %
25.11.2017 02:08 5,4 C 5,0 C 3,9 C 97 % 15 lf 1009,8 hPa 0,2 l/m 0 min 2 min 0 W/m 18,0 km/h (3 Bft) 100,00 %
25.11.2017 02:10 5,4 C 5,0 C 3,9 C 97 % 15 lf 1009,7 hPa 0,2 l/m 0 min 2 min 0 W/m 20,3 km/h (4 Bft) 100,00 %
25.11.2017 02:12 5,4 C 5,0 C 3,9 C 97 % 15 lf 1009,7 hPa 0,0 l/m 0 min 2 min 0 W/m 15,8 km/h (3 Bft) 97,83 %
25.11.2017 02:14 5,4 C 5,0 C 3,9 C 97 % 15 lf 1009,6 hPa 0,0 l/m 0 min 2 min 0 W/m 13,5 km/h (3 Bft) 97,87 %
25.11.2017 02:16 5,4 C 5,0 C 3,9 C 96 % 15 lf 1009,6 hPa 0,0 l/m 0 min 2 min 0 W/m 13,5 km/h (3 Bft) 91,49 %
25.11.2017 02:18 5,4 C 5,0 C 3,9 C 96 % 15 lf 1009,6 hPa 0,0 l/m 0 min 2 min 0 W/m 18,0 km/h (3 Bft) 97,87 %
25.11.2017 02:20 5,4 C 5,0 C 3,9 C 96 % 15 lf 1009,7 hPa 0,0 l/m 0 min 2 min 0 W/m 11,3 km/h (2 Bft) 97,87 %
25.11.2017 02:22 5,4 C 5,0 C 3,9 C 96 % 15 lf 1009,7 hPa 0,2 l/m 0 min 2 min 0 W/m 13,5 km/h (3 Bft) 97,87 %
25.11.2017 02:24 5,4 C 5,0 C 3,9 C 96 % 15 lf 1009,7 hPa 0,0 l/m 0 min 2 min 0 W/m 15,8 km/h (3 Bft) 95,65 %
25.11.2017 02:26 5,3 C 5,0 C 3,9 C 97 % 15 lf 1009,7 hPa 0,0 l/m 0 min 2 min 0 W/m 13,5 km/h (3 Bft) 97,87 %
25.11.2017 02:28 5,3 C 5,0 C 3,9 C 97 % 15 lf 1009,7 hPa 0,2 l/m 0 min 2 min 0 W/m 13,5 km/h (3 Bft) 95,74 %
25.11.2017 02:30 5,3 C 5,0 C 3,9 C 97 % 15 lf 1009,7 hPa 0,0 l/m 0 min 2 min 0 W/m 13,5 km/h (3 Bft) 95,74 %
25.11.2017 02:32 5,3 C 5,0 C 3,9 C 97 % 15 lf 1009,7 hPa 0,0 l/m 0 min 2 min 0 W/m 13,5 km/h (3 Bft) 97,87 %
25.11.2017 02:34 5,3 C 5,0 C 3,9 C 97 % 15 lf 1009,6 hPa 0,0 l/m 0 min 2 min 0 W/m 9,0 km/h (2 Bft) 100,00 %
25.11.2017 02:36 5,3 C 5,0 C 3,9 C 97 % 15 lf 1009,7 hPa 0,0 l/m 0 min 2 min 0 W/m 9,0 km/h (2 Bft) 95,65 %
25.11.2017 02:38 5,3 C 5,0 C 3,9 C 97 % 15 lf 1009,7 hPa 0,0 l/m 0 min 2 min 0 W/m 11,3 km/h (2 Bft) 93,62 %
25.11.2017 02:40 5,3 C 5,0 C 3,9 C 97 % 15 lf 1009,7 hPa 0,0 l/m 0 min 2 min 0 W/m 11,3 km/h (2 Bft) 95,74 %
25.11.2017 02:42 5,3 C 5,0 C 3,9 C 97 % 15 lf 1009,6 hPa 0,0 l/m 0 min 2 min 0 W/m 15,8 km/h (3 Bft) 95,74 %
25.11.2017 02:44 5,3 C 5,0 C 3,9 C 97 % 15 lf 1009,6 hPa 0,0 l/m 0 min 2 min 0 W/m 18,0 km/h (3 Bft) 95,74 %
25.11.2017 02:46 5,3 C 5,0 C 3,9 C 97 % 15 lf 1009,5 hPa 0,0 l/m 0 min 2 min 0 W/m 18,0 km/h (3 Bft) 93,48 %
25.11.2017 02:48 5,3 C 5,0 C 3,9 C 97 % 15 lf 1009,4 hPa 0,0 l/m 0 min 2 min 0 W/m 15,8 km/h (3 Bft) 93,62 %
25.11.2017 02:50 5,2 C 5,0 C 3,9 C 97 % 15 lf 1009,3 hPa 0,0 l/m 0 min 2 min 0 W/m 15,8 km/h (3 Bft) 95,74 %
25.11.2017 02:52 5,2 C 5,0 C 3,9 C 97 % 15 lf 1009,4 hPa 0,0 l/m 0 min 2 min 0 W/m 15,8 km/h (3 Bft) 95,74 %
25.11.2017 02:54 5,2 C 5,0 C 3,9 C 97 % 15 lf 1009,3 hPa 0,0 l/m 0 min 2 min 0 W/m 18,0 km/h (3 Bft) 91,49 %
25.11.2017 02:56 5,2 C 5,0 C 3,9 C 97 % 15 lf 1009,2 hPa 0,0 l/m 0 min 2 min 0 W/m 18,0 km/h (3 Bft) 91,49 %
25.11.2017 02:58 5,2 C 5,0 C 3,9 C 97 % 15 lf 1009,2 hPa 0,2 l/m 0 min 2 min 0 W/m 15,8 km/h (3 Bft) 95,74 %
25.11.2017 03:00 5,2 C 5,0 C 3,9 C 97 % 15 lf 1009,2 hPa 0,0 l/m 0 min 2 min 0 W/m 18,0 km/h (3 Bft) 93,48 %
25.11.2017 03:02 5,2 C 5,0 C 3,9 C 97 % 15 lf 1009,1 hPa 0,0 l/m 0 min 2 min 0 W/m 20,3 km/h (4 Bft) 93,62 %
25.11.2017 03:04 5,2 C 5,0 C 3,9 C 97 % 15 lf 1009,2 hPa 0,0 l/m 0 min 2 min 0 W/m 15,8 km/h (3 Bft) 95,74 %
25.11.2017 03:06 5,2 C 5,0 C 3,9 C 97 % 15 lf 1009,1 hPa 0,0 l/m 0 min 2 min 0 W/m 15,8 km/h (3 Bft) 93,62 %
25.11.2017 03:08 5,2 C 5,0 C 3,9 C 97 % 15 lf 1009,1 hPa 0,0 l/m 0 min 2 min 0 W/m 15,8 km/h (3 Bft) 95,74 %
25.11.2017 03:10 5,2 C 5,0 C 3,9 C 97 % 15 lf 1009,1 hPa 0,0 l/m 0 min 2 min 0 W/m 20,3 km/h (4 Bft) 93,48 %
25.11.2017 03:12 5,1 C 5,0 C 3,9 C 97 % 15 lf 1009,0 hPa 0,0 l/m 0 min 2 min 0 W/m 13,5 km/h (3 Bft) 91,49 %
25.11.2017 03:14 5,1 C 5,0 C 3,9 C 97 % 15 lf 1009,0 hPa 0,0 l/m 0 min 2 min 0 W/m 15,8 km/h (3 Bft) 93,62 %
25.11.2017 03:16 5,1 C 5,0 C 3,9 C 97 % 15 lf 1009,0 hPa 0,0 l/m 0 min 2 min 0 W/m 15,8 km/h (3 Bft) 93,62 %
25.11.2017 03:18 5,1 C 5,0 C 3,9 C 97 % 15 lf 1009,0 hPa 0,0 l/m 0 min 2 min 0 W/m 18,0 km/h (3 Bft) 95,74 %
25.11.2017 03:20 5,1 C 4,4 C 3,9 C 97 % 15 lf 1008,9 hPa 0,0 l/m 0 min 2 min 0 W/m 15,8 km/h (3 Bft) 95,74 %
25.11.2017 03:22 5,1 C 4,4 C 3,9 C 97 % 15 lf 1008,9 hPa 0,0 l/m 0 min 2 min 0 W/m 20,3 km/h (4 Bft) 93,48 %
25.11.2017 03:24 5,1 C 4,4 C 3,9 C 97 % 15 lf 1008,8 hPa 0,0 l/m 0 min 2 min 0 W/m 15,8 km/h (3 Bft) 91,49 %
25.11.2017 03:26 5,1 C 4,4 C 3,9 C 97 % 15 lf 1008,8 hPa 0,0 l/m 0 min 2 min 0 W/m 20,3 km/h (4 Bft) 93,62 %
25.11.2017 03:28 5,0 C 4,4 C 3,9 C 97 % 15 lf 1008,9 hPa 0,0 l/m 0 min 2 min 0 W/m 18,0 km/h (3 Bft) 95,74 %
25.11.2017 03:30 4,9 C 4,4 C 3,9 C 97 % 15 lf 1009,0 hPa 0,0 l/m 0 min 2 min 0 W/m 15,8 km/h (3 Bft) 95,74 %
25.11.2017 03:32 4,9 C 4,4 C 3,3 C 97 % 15 lf 1009,0 hPa 0,0 l/m 0 min 2 min 0 W/m 15,8 km/h (3 Bft) 95,74 %
25.11.2017 03:34 4,9 C 4,4 C 3,9 C 97 % 15 lf 1008,9 hPa 0,0 l/m 0 min 0 min 0 W/m 15,8 km/h (3 Bft) 95,65 %
25.11.2017 03:36 4,9 C 4,4 C 3,3 C 97 % 15 lf 1009,0 hPa 0,0 l/m 0 min 2 min 0 W/m 18,0 km/h (3 Bft) 97,87 %
25.11.2017 03:38 4,9 C 4,4 C 3,3 C 97 % 15 lf 1009,0 hPa 0,0 l/m 0 min 2 min 0 W/m 18,0 km/h (3 Bft) 97,87 %
25.11.2017 03:40 4,8 C 4,4 C 3,3 C 97 % 15 lf 1009,0 hPa 0,0 l/m 0 min 2 min 0 W/m 15,8 km/h (3 Bft) 93,62 %
25.11.2017 03:42 4,8 C 4,4 C 3,3 C 97 % 15 lf 1008,8 hPa 0,0 l/m 0 min 0 min 0 W/m 15,8 km/h (3 Bft) 95,74 %
25.11.2017 03:44 4,7 C 4,4 C 3,3 C 97 % 15 lf 1008,8 hPa 0,0 l/m 0 min 0 min 0 W/m 13,5 km/h (3 Bft) 93,62 %
25.11.2017 03:46 4,7 C 4,4 C 3,3 C 97 % 15 lf 1008,8 hPa 0,0 l/m 0 min 0 min 0 W/m 11,3 km/h (2 Bft) 93,48 %
25.11.2017 03:48 4,7 C 4,4 C 3,3 C 97 % 15 lf 1008,8 hPa 0,0 l/m 0 min 0 min 0 W/m 13,5 km/h (3 Bft) 97,87 %
25.11.2017 03:50 4,7 C 4,4 C 3,3 C 97 % 15 lf 1008,8 hPa 0,0 l/m 0 min 0 min 0 W/m 15,8 km/h (3 Bft) 95,74 %
25.11.2017 03:52 4,7 C 4,4 C 3,3 C 97 % 15 lf 1008,9 hPa 0,0 l/m 0 min 0 min 0 W/m 13,5 km/h (3 Bft) 93,62 %
25.11.2017 03:54 4,7 C 4,4 C 3,3 C 97 % 15 lf 1008,8 hPa 0,0 l/m 0 min 2 min 0 W/m 13,5 km/h (3 Bft) 95,74 %
25.11.2017 03:56 4,7 C 4,4 C 3,3 C 97 % 15 lf 1008,7 hPa 0,0 l/m 0 min 2 min 0 W/m 15,8 km/h (3 Bft) 97,83 %
25.11.2017 03:58 4,7 C 4,4 C 3,3 C 97 % 15 lf 1008,7 hPa 0,0 l/m 0 min 2 min 0 W/m 11,3 km/h (2 Bft) 95,74 %
25.11.2017 04:00 4,7 C 4,4 C 3,3 C 97 % 15 lf 1008,7 hPa 0,0 l/m 0 min 2 min 0 W/m 9,0 km/h (2 Bft) 95,74 %
25.11.2017 04:05 4,7 C 4,4 C 3,3 C 97 % 15 lf 1008,7 hPa 0,0 l/m 0 min 5 min 0 W/m 13,5 km/h (3 Bft) 98,18 %
25.11.2017 04:06 4,7 C 4,4 C 3,3 C 97 % 15 lf 1008,7 hPa 0,0 l/m 0 min 1 min 0 W/m 15,8 km/h (3 Bft) 100,00 %
25.11.2017 04:08 4,7 C 4,4 C 3,3 C 97 % 15 lf 1008,6 hPa 0,0 l/m 0 min 0 min 0 W/m 11,3 km/h (2 Bft) 95,65 %
25.11.2017 04:10 4,7 C 4,4 C 3,3 C 97 % 15 lf 1008,6 hPa 0,0 l/m 0 min 0 min 0 W/m 11,3 km/h (2 Bft) 93,62 %
25.11.2017 04:12 4,7 C 4,4 C 3,3 C 97 % 15 lf 1008,6 hPa 0,0 l/m 0 min 0 min 0 W/m 13,5 km/h (3 Bft) 95,74 %
25.11.2017 04:14 4,7 C 4,4 C 3,3 C 97 % 15 lf 1008,6 hPa 0,0 l/m 0 min 0 min 0 W/m 9,0 km/h (2 Bft) 95,74 %
25.11.2017 04:16 4,7 C 4,4 C 3,3 C 97 % 15 lf 1008,4 hPa 0,0 l/m 0 min 0 min 0 W/m 9,0 km/h (2 Bft) 91,49 %
25.11.2017 04:18 4,7 C 4,4 C 3,3 C 97 % 15 lf 1008,5 hPa 0,0 l/m 0 min 0 min 0 W/m 11,3 km/h (2 Bft) 95,74 %
25.11.2017 04:20 4,7 C 4,4 C 3,3 C 97 % 15 lf 1008,7 hPa 0,0 l/m 0 min 0 min 0 W/m 9,0 km/h (2 Bft) 95,65 %
25.11.2017 04:22 4,7 C 4,4 C 3,3 C 97 % 15 lf 1008,6 hPa 0,0 l/m 0 min 0 min 0 W/m 9,0 km/h (2 Bft) 95,74 %
25.11.2017 04:24 4,7 C 4,4 C 3,3 C 97 % 15 lf 1008,7 hPa 0,0 l/m 0 min 0 min 0 W/m 9,0 km/h (2 Bft) 95,74 %
25.11.2017 04:26 4,7 C 4,4 C 3,3 C 97 % 15 lf 1008,5 hPa 0,0 l/m 0 min 0 min 0 W/m 11,3 km/h (2 Bft) 95,74 %
25.11.2017 04:28 4,6 C 4,4 C 3,3 C 97 % 15 lf 1008,6 hPa 0,0 l/m 0 min 0 min 0 W/m 9,0 km/h (2 Bft) 93,62 %
25.11.2017 04:30 4,7 C 4,4 C 3,3 C 97 % 15 lf 1008,6 hPa 0,0 l/m 0 min 0 min 0 W/m 9,0 km/h (2 Bft) 95,74 %
25.11.2017 04:32 4,6 C 4,4 C 3,3 C 97 % 15 lf 1008,6 hPa 0,0 l/m 0 min 0 min 0 W/m 9,0 km/h (2 Bft) 97,83 %
25.11.2017 04:34 4,6 C 4,4 C 3,3 C 97 % 15 lf 1008,5 hPa 0,0 l/m 0 min 0 min 0 W/m 9,0 km/h (2 Bft) 95,74 %
25.11.2017 04:36 4,7 C 4,4 C 3,3 C 97 % 15 lf 1008,4 hPa 0,0 l/m 0 min 0 min 0 W/m 6,8 km/h (2 Bft) 100,00 %
25.11.2017 04:38 4,7 C 4,4 C 3,3 C 97 % 15 lf 1008,4 hPa 0,0 l/m 0 min 0 min 0 W/m 6,8 km/h (2 Bft) 100,00 %
25.11.2017 04:40 4,7 C 4,4 C 3,3 C 97 % 15 lf 1008,5 hPa 0,0 l/m 0 min 0 min 0 W/m 9,0 km/h (2 Bft) 100,00 %
25.11.2017 04:42 4,7 C 4,4 C 3,3 C 97 % 15 lf 1008,5 hPa 0,0 l/m 0 min 0 min 0 W/m 6,8 km/h (2 Bft) 97,87 %
25.11.2017 04:44 4,7 C 4,4 C 3,9 C 97 % 15 lf 1008,5 hPa 0,0 l/m 0 min 0 min 0 W/m 4,5 km/h (1 Bft) 100,00 %
25.11.2017 04:46 4,7 C 4,4 C 3,9 C 97 % 15 lf 1008,5 hPa 0,0 l/m 0 min 0 min 0 W/m 6,8 km/h (2 Bft) 97,87 %
25.11.2017 04:48 4,7 C 4,4 C 3,9 C 97 % 15 lf 1008,4 hPa 0,0 l/m 0 min 0 min 0 W/m 4,5 km/h (1 Bft) 100,00 %
25.11.2017 04:50 4,7 C 4,4 C 3,9 C 97 % 15 lf 1008,4 hPa 0,0 l/m 0 min 0 min 0 W/m 4,5 km/h (1 Bft) 100,00 %
25.11.2017 04:52 4,7 C 4,4 C 3,9 C 97 % 15 lf 1008,4 hPa 0,0 l/m 0 min 0 min 0 W/m 6,8 km/h (2 Bft) 100,00 %
25.11.2017 04:54 4,7 C 4,4 C 3,9 C 97 % 15 lf 1008,4 hPa 0,0 l/m 0 min 0 min 0 W/m 4,5 km/h (1 Bft) 100,00 %
25.11.2017 04:56 4,7 C 4,4 C 3,9 C 97 % 15 lf 1008,4 hPa 0,0 l/m 0 min 0 min 0 W/m 4,5 km/h (1 Bft) 100,00 %
25.11.2017 04:58 4,7 C 4,4 C 3,3 C 97 % 15 lf 1008,4 hPa 0,0 l/m 0 min 0 min 0 W/m 4,5 km/h (1 Bft) 100,00 %
25.11.2017 05:00 4,7 C 4,4 C 3,3 C 97 % 15 lf 1008,5 hPa 0,0 l/m 0 min 0 min 0 W/m 2,3 km/h (1 Bft) 100,00 %
25.11.2017 05:02 4,7 C 4,4 C 3,3 C 97 % 15 lf 1008,4 hPa 0,0 l/m 0 min 0 min 0 W/m 4,5 km/h (1 Bft) 95,74 %
25.11.2017 05:04 4,7 C 4,4 C 3,3 C 97 % 15 lf 1008,4 hPa 0,0 l/m 0 min 0 min 0 W/m 9,0 km/h (2 Bft) 97,87 %
25.11.2017 05:06 4,7 C 4,4 C 3,3 C 97 % 15 lf 1008,4 hPa 0,0 l/m 0 min 0 min 0 W/m 4,5 km/h (1 Bft) 100,00 %
25.11.2017 05:08 4,7 C 4,4 C 3,3 C 97 % 15 lf 1008,4 hPa 0,0 l/m 0 min 0 min 0 W/m 4,5 km/h (1 Bft) 100,00 %
25.11.2017 05:10 4,7 C 4,4 C 3,3 C 97 % 15 lf 1008,3 hPa 0,0 l/m 0 min 0 min 0 W/m 4,5 km/h (1 Bft) 100,00 %
25.11.2017 05:12 4,7 C 4,4 C 3,3 C 97 % 15 lf 1008,2 hPa 0,0 l/m 0 min 0 min 0 W/m 4,5 km/h (1 Bft) 100,00 %
25.11.2017 05:14 4,7 C 4,4 C 3,3 C 97 % 15 lf 1008,2 hPa 0,0 l/m 0 min 0 min 0 W/m 2,3 km/h (1 Bft) 100,00 %
25.11.2017 05:16 4,7 C 4,4 C 3,3 C 97 % 15 lf 1008,3 hPa 0,0 l/m 0 min 0 min 0 W/m 0,0 km/h (0 Bft) 100,00 %
25.11.2017 05:18 4,7 C 4,4 C 3,3 C 97 % 15 lf 1008,3 hPa 0,0 l/m 0 min 0 min 0 W/m 2,3 km/h (1 Bft) 100,00 %
25.11.2017 05:20 4,7 C 4,4 C 3,3 C 97 % 15 lf 1008,3 hPa 0,0 l/m 0 min 0 min 0 W/m 2,3 km/h (1 Bft) 91,49 %
25.11.2017 05:22 4,7 C 4,4 C 3,3 C 97 % 15 lf 1008,3 hPa 0,0 l/m 0 min 0 min 0 W/m 4,5 km/h (1 Bft) 100,00 %
25.11.2017 05:24 4,7 C 4,4 C 3,3 C 97 % 15 lf 1008,4 hPa 0,0 l/m 0 min 0 min 0 W/m 4,5 km/h (1 Bft) 100,00 %
25.11.2017 05:26 4,7 C 4,4 C 3,3 C 97 % 15 lf 1008,4 hPa 0,0 l/m 0 min 0 min 0 W/m 4,5 km/h (1 Bft) 97,87 %
25.11.2017 05:28 4,7 C 4,4 C 3,9 C 97 % 15 lf 1008,3 hPa 0,0 l/m 0 min 0 min 0 W/m 6,8 km/h (2 Bft) 97,87 %
25.11.2017 05:30 4,7 C 4,4 C 3,9 C 97 % 15 lf 1008,3 hPa 0,0 l/m 0 min 0 min 0 W/m 9,0 km/h (2 Bft) 100,00 %
25.11.2017 05:32 4,7 C 4,4 C 3,3 C 97 % 15 lf 1008,3 hPa 0,0 l/m 0 min 0 min 0 W/m 6,8 km/h (2 Bft) 100,00 %
25.11.2017 05:34 4,7 C 4,4 C 3,9 C 97 % 15 lf 1008,3 hPa 0,0 l/m 0 min 0 min 0 W/m 9,0 km/h (2 Bft) 100,00 %
25.11.2017 05:35 4,6 C 4,4 C 3,9 C 97 % 15 lf 1008,3 hPa 0,0 l/m 0 min 0 min 0 W/m 9,0 km/h (2 Bft) 100,00 %
25.11.2017 05:42 4,7 C 4,4 C 3,9 C 97 % 15 lf 1008,2 hPa 0,0 l/m 0 min 0 min 0 W/m 6,8 km/h (2 Bft) 94,29 %
25.11.2017 05:44 4,7 C 4,4 C 3,9 C 97 % 15 lf 1008,2 hPa 0,0 l/m 0 min 0 min 0 W/m 6,8 km/h (2 Bft) 97,14 %
25.11.2017 05:46 4,6 C 4,4 C 3,9 C 97 % 15 lf 1008,2 hPa 0,0 l/m 0 min 0 min 0 W/m 6,8 km/h (2 Bft) 96,61 %
25.11.2017 05:48 4,6 C 4,4 C 3,3 C 97 % 15 lf 1008,2 hPa 0,0 l/m 0 min 0 min 0 W/m 6,8 km/h (2 Bft) 97,14 %
25.11.2017 05:50 4,7 C 4,4 C 3,3 C 97 % 15 lf 1008,1 hPa 0,0 l/m 0 min 0 min 0 W/m 2,3 km/h (1 Bft) 96,61 %
25.11.2017 05:52 4,7 C 4,4 C 3,3 C 97 % 15 lf 1008,0 hPa 0,0 l/m 0 min 0 min 0 W/m 4,5 km/h (1 Bft) 97,83 %
25.11.2017 05:54 4,7 C 4,4 C 3,3 C 97 % 15 lf 1008,1 hPa 0,0 l/m 0 min 0 min 0 W/m 4,5 km/h (1 Bft) 97,22 %
25.11.2017 05:56 4,6 C 4,4 C 3,3 C 97 % 15 lf 1008,2 hPa 0,0 l/m 0 min 0 min 0 W/m 2,3 km/h (1 Bft) 95,65 %
25.11.2017 05:58 4,6 C 4,4 C 3,3 C 97 % 15 lf 1008,1 hPa 0,0 l/m 0 min 0 min 0 W/m 4,5 km/h (1 Bft) 96,61 %
25.11.2017 06:00 4,6 C 4,4 C 3,3 C 97 % 15 lf 1008,1 hPa 0,0 l/m 0 min 0 min 0 W/m 9,0 km/h (2 Bft) 91,43 %
25.11.2017 06:02 4,6 C 4,4 C 3,3 C 97 % 15 lf 1008,0 hPa 0,0 l/m 0 min 0 min 0 W/m 9,0 km/h (2 Bft) 94,83 %
25.11.2017 06:04 4,6 C 4,4 C 3,3 C 97 % 15 lf 1008,1 hPa 0,0 l/m 0 min 0 min 0 W/m 9,0 km/h (2 Bft) 93,62 %
25.11.2017 06:06 4,6 C 4,4 C 3,3 C 97 % 15 lf 1008,1 hPa 0,0 l/m 0 min 0 min 0 W/m 9,0 km/h (2 Bft) 91,49 %
25.11.2017 06:10 4,6 C 4,4 C 3,3 C 97 % 15 lf 1008,1 hPa 0,0 l/m 0 min 0 min 0 W/m 9,0 km/h (2 Bft) 96,34 %
25.11.2017 06:12 4,6 C 4,4 C 3,3 C 97 % 15 lf 1008,2 hPa 0,0 l/m 0 min 0 min 0 W/m 9,0 km/h (2 Bft) 93,62 %
25.11.2017 06:14 4,6 C 4,4 C 3,3 C 97 % 15 lf 1008,1 hPa 0,0 l/m 0 min 2 min 0 W/m 4,5 km/h (1 Bft) 95,74 %
25.11.2017 06:16 4,6 C 4,4 C 3,3 C 97 % 15 lf 1008,1 hPa 0,0 l/m 0 min 2 min 0 W/m 4,5 km/h (1 Bft) 95,74 %
25.11.2017 06:18 4,6 C 4,4 C 3,3 C 97 % 15 lf 1008,2 hPa 0,0 l/m 0 min 2 min 0 W/m 6,8 km/h (2 Bft) 95,65 %
25.11.2017 06:20 4,6 C 3,9 C 3,3 C 97 % 15 lf 1008,2 hPa 0,0 l/m 0 min 2 min 0 W/m 6,8 km/h (2 Bft) 94,34 %
25.11.2017 06:22 4,6 C 3,9 C 3,3 C 97 % 15 lf 1008,1 hPa 0,0 l/m 0 min 2 min 0 W/m 4,5 km/h (1 Bft) 92,68 %
25.11.2017 06:24 4,6 C 3,9 C 3,3 C 97 % 15 lf 1008,2 hPa 0,0 l/m 0 min 2 min 0 W/m 6,8 km/h (2 Bft) 91,49 %
25.11.2017 06:26 4,6 C 3,9 C 3,3 C 97 % 15 lf 1008,2 hPa 0,0 l/m 0 min 2 min 0 W/m 9,0 km/h (2 Bft) 93,62 %
25.11.2017 06:28 4,6 C 3,9 C 3,3 C 97 % 15 lf 1008,3 hPa 0,0 l/m 0 min 0 min 0 W/m 11,3 km/h (2 Bft) 93,62 %
25.11.2017 06:30 4,5 C 3,9 C 3,3 C 97 % 15 lf 1008,3 hPa 0,0 l/m 0 min 0 min 0 W/m 9,0 km/h (2 Bft) 95,65 %
25.11.2017 06:32 4,5 C 3,9 C 3,3 C 97 % 15 lf 1008,3 hPa 0,0 l/m 0 min 0 min 0 W/m 6,8 km/h (2 Bft) 97,87 %
25.11.2017 06:34 4,5 C 3,9 C 3,3 C 97 % 15 lf 1008,3 hPa 0,0 l/m 0 min 0 min 0 W/m 9,0 km/h (2 Bft) 97,87 %
25.11.2017 06:36 4,4 C 3,9 C 3,3 C 97 % 15 lf 1008,3 hPa 0,0 l/m 0 min 0 min 0 W/m 6,8 km/h (2 Bft) 97,87 %
25.11.2017 06:38 4,4 C 3,9 C 3,3 C 97 % 15 lf 1008,4 hPa 0,0 l/m 0 min 0 min 0 W/m 4,5 km/h (1 Bft) 91,49 %
25.11.2017 06:40 4,4 C 3,9 C 3,3 C 97 % 15 lf 1008,3 hPa 0,0 l/m 0 min 0 min 0 W/m 6,8 km/h (2 Bft) 97,87 %
25.11.2017 06:42 4,4 C 3,9 C 3,3 C 97 % 15 lf 1008,3 hPa 0,0 l/m 0 min 0 min 0 W/m 6,8 km/h (2 Bft) 93,48 %
25.11.2017 06:44 4,4 C 3,9 C 3,3 C 97 % 15 lf 1008,4 hPa 0,0 l/m 0 min 0 min 0 W/m 4,5 km/h (1 Bft) 95,74 %
25.11.2017 06:46 4,4 C 3,9 C 3,3 C 97 % 15 lf 1008,4 hPa 0,0 l/m 0 min 0 min 0 W/m 4,5 km/h (1 Bft) 95,74 %
25.11.2017 06:48 4,4 C 3,9 C 3,3 C 97 % 15 lf 1008,4 hPa 0,0 l/m 0 min 0 min 0 W/m 4,5 km/h (1 Bft) 95,74 %
25.11.2017 06:50 4,4 C 3,9 C 3,3 C 97 % 15 lf 1008,4 hPa 0,0 l/m 0 min 0 min 0 W/m 2,3 km/h (1 Bft) 94,23 %
25.11.2017 06:52 4,4 C 3,9 C 3,3 C 97 % 15 lf 1008,3 hPa 0,0 l/m 0 min 0 min 0 W/m 2,3 km/h (1 Bft) 97,62 %
25.11.2017 06:54 4,4 C 3,9 C 3,3 C 97 % 15 lf 1008,4 hPa 0,0 l/m 0 min 0 min 0 W/m 4,5 km/h (1 Bft) 95,65 %
25.11.2017 06:56 4,4 C 3,9 C 3,3 C 97 % 15 lf 1008,4 hPa 0,0 l/m 0 min 0 min 0 W/m 2,3 km/h (1 Bft) 91,49 %
25.11.2017 06:58 4,4 C 3,9 C 3,3 C 97 % 15 lf 1008,4 hPa 0,0 l/m 0 min 0 min 0 W/m 2,3 km/h (1 Bft) 93,62 %
25.11.2017 07:00 4,4 C 3,9 C 3,3 C 97 % 15 lf 1008,4 hPa 0,0 l/m 0 min 0 min 0 W/m 4,5 km/h (1 Bft) 93,62 %
25.11.2017 07:02 4,3 C 3,9 C 3,3 C 97 % 15 lf 1008,4 hPa 0,0 l/m 0 min 0 min 0 W/m 4,5 km/h (1 Bft) 95,74 %
25.11.2017 07:04 4,4 C 3,9 C 3,3 C 97 % 15 lf 1008,4 hPa 0,0 l/m 0 min 0 min 0 W/m 4,5 km/h (1 Bft) 93,62 %
25.11.2017 07:06 4,4 C 3,9 C 3,3 C 97 % 15 lf 1008,5 hPa 0,0 l/m 0 min 0 min 0 W/m 4,5 km/h (1 Bft) 97,83 %
25.11.2017 07:08 4,3 C 3,9 C 3,3 C 97 % 15 lf 1008,5 hPa 0,0 l/m 0 min 0 min 0 W/m 4,5 km/h (1 Bft) 97,87 %
25.11.2017 07:10 4,3 C 3,9 C 3,3 C 97 % 15 lf 1008,5 hPa 0,0 l/m 0 min 0 min 0 W/m 4,5 km/h (1 Bft) 95,74 %
25.11.2017 07:12 4,4 C 3,9 C 3,3 C 97 % 15 lf 1008,4 hPa 0,0 l/m 0 min 0 min 0 W/m 4,5 km/h (1 Bft) 95,74 %
25.11.2017 07:14 4,3 C 3,9 C 3,3 C 97 % 15 lf 1008,5 hPa 0,0 l/m 0 min 0 min 0 W/m 6,8 km/h (2 Bft) 95,74 %
25.11.2017 07:16 4,3 C 3,9 C 3,3 C 97 % 15 lf 1008,4 hPa 0,0 l/m 0 min 0 min 0 W/m 9,0 km/h (2 Bft) 95,65 %
25.11.2017 07:18 4,3 C 3,9 C 3,3 C 97 % 15 lf 1008,4 hPa 0,0 l/m 0 min 0 min 0 W/m 9,0 km/h (2 Bft) 95,74 %
25.11.2017 07:20 4,3 C 3,9 C 3,3 C 97 % 15 lf 1008,4 hPa 0,0 l/m 0 min 0 min 0 W/m 9,0 km/h (2 Bft) 98,11 %
25.11.2017 07:22 4,3 C 3,9 C 3,3 C 97 % 15 lf 1008,5 hPa 0,0 l/m 0 min 0 min 0 W/m 6,8 km/h (2 Bft) 97,56 %
25.11.2017 07:24 4,3 C 3,9 C 3,3 C 97 % 15 lf 1008,5 hPa 0,0 l/m 0 min 0 min 0 W/m 2,3 km/h (1 Bft) 97,87 %
25.11.2017 07:26 4,3 C 3,9 C 3,3 C 97 % 15 lf 1008,6 hPa 0,0 l/m 0 min 0 min 0 W/m 4,5 km/h (1 Bft) 97,87 %
25.11.2017 07:28 4,3 C 3,9 C 3,3 C 97 % 15 lf 1008,6 hPa 0,0 l/m 0 min 0 min 0 W/m 4,5 km/h (1 Bft) 95,65 %
25.11.2017 07:30 4,4 C 3,9 C 3,3 C 97 % 15 lf 1008,5 hPa 0,0 l/m 0 min 0 min 0 W/m 6,8 km/h (2 Bft) 95,74 %
25.11.2017 07:32 4,3 C 3,9 C 3,3 C 97 % 15 lf 1008,5 hPa 0,0 l/m 0 min 0 min 0 W/m 6,8 km/h (2 Bft) 97,87 %
25.11.2017 07:34 4,3 C 3,9 C 3,3 C 97 % 15 lf 1008,6 hPa 0,0 l/m 0 min 0 min 0 W/m 4,5 km/h (1 Bft) 95,74 %
25.11.2017 07:36 4,3 C 3,9 C 3,3 C 97 % 15 lf 1008,6 hPa 0,0 l/m 0 min 0 min 0 W/m 6,8 km/h (2 Bft) 95,74 %
25.11.2017 07:38 4,3 C 3,9 C 3,3 C 97 % 15 lf 1008,6 hPa 0,0 l/m 0 min 0 min 0 W/m 11,3 km/h (2 Bft) 97,87 %
25.11.2017 07:40 4,4 C 3,9 C 3,3 C 97 % 15 lf 1008,6 hPa 0,0 l/m 0 min 0 min 0 W/m 9,0 km/h (2 Bft) 95,65 %
25.11.2017 07:42 4,3 C 3,9 C 3,3 C 97 % 15 lf 1008,7 hPa 0,0 l/m 0 min 0 min 0 W/m 6,8 km/h (2 Bft) 97,87 %
25.11.2017 07:44 4,3 C 3,9 C 3,3 C 97 % 15 lf 1008,7 hPa 0,0 l/m 0 min 0 min 0 W/m 9,0 km/h (2 Bft) 95,74 %
25.11.2017 07:46 4,3 C 3,9 C 3,3 C 97 % 15 lf 1008,7 hPa 0,0 l/m 0 min 0 min 0 W/m 6,8 km/h (2 Bft) 91,49 %
25.11.2017 07:48 4,3 C 3,9 C 3,3 C 97 % 15 lf 1008,7 hPa 0,0 l/m 0 min 0 min 0 W/m 9,0 km/h (2 Bft) 93,62 %
25.11.2017 07:50 4,3 C 3,9 C 3,3 C 97 % 15 lf 1008,8 hPa 0,0 l/m 0 min 0 min 0 W/m 11,3 km/h (2 Bft) 97,87 %
25.11.2017 07:52 4,3 C 3,9 C 3,3 C 97 % 15 lf 1008,8 hPa 0,0 l/m 0 min 0 min 0 W/m 11,3 km/h (2 Bft) 97,87 %
25.11.2017 07:54 4,3 C 3,9 C 3,3 C 97 % 15 lf 1008,8 hPa 0,0 l/m 0 min 0 min 0 W/m 11,3 km/h (2 Bft) 97,83 %
25.11.2017 07:56 4,3 C 3,9 C 3,3 C 97 % 15 lf 1008,8 hPa 0,0 l/m 0 min 0 min 0 W/m 15,8 km/h (3 Bft) 95,74 %
25.11.2017 07:58 4,3 C 3,9 C 3,3 C 97 % 15 lf 1008,8 hPa 0,0 l/m 0 min 0 min 0 W/m 11,3 km/h (2 Bft) 97,87 %
25.11.2017 08:00 4,3 C 3,9 C 3,3 C 97 % 15 lf 1008,8 hPa 0,0 l/m 0 min 0 min 0 W/m 11,3 km/h (2 Bft) 97,87 %
25.11.2017 08:02 4,3 C 3,9 C 3,3 C 97 % 15 lf 1008,8 hPa 0,0 l/m 0 min 0 min 0 W/m 9,0 km/h (2 Bft) 97,87 %
25.11.2017 08:04 4,3 C 3,9 C 3,3 C 97 % 15 lf 1008,9 hPa 0,0 l/m 0 min 0 min 0 W/m 6,8 km/h (2 Bft) 100,00 %
25.11.2017 08:06 4,3 C 3,9 C 3,3 C 97 % 15 lf 1009,0 hPa 0,0 l/m 0 min 0 min 0 W/m 11,3 km/h (2 Bft) 95,74 %
25.11.2017 08:08 4,3 C 3,9 C 3,3 C 97 % 15 lf 1009,0 hPa 0,0 l/m 0 min 0 min 0 W/m 9,0 km/h (2 Bft) 95,74 %
25.11.2017 08:10 4,3 C 3,9 C 3,3 C 97 % 15 lf 1009,0 hPa 0,0 l/m 0 min 0 min 0 W/m 9,0 km/h (2 Bft) 97,87 %
25.11.2017 08:12 4,3 C 3,9 C 3,3 C 97 % 15 lf 1009,0 hPa 0,0 l/m 0 min 0 min 0 W/m 11,3 km/h (2 Bft) 97,87 %
25.11.2017 08:14 4,3 C 3,9 C 3,3 C 97 % 15 lf 1009,1 hPa 0,0 l/m 0 min 0 min 0 W/m 11,3 km/h (2 Bft) 95,74 %
25.11.2017 08:16 4,3 C 3,9 C 3,3 C 97 % 15 lf 1009,1 hPa 0,0 l/m 0 min 0 min 0 W/m 11,3 km/h (2 Bft) 100,00 %
25.11.2017 08:18 4,3 C 3,9 C 3,3 C 97 % 15 lf 1009,2 hPa 0,0 l/m 0 min 0 min 0 W/m 11,3 km/h (2 Bft) 100,00 %
25.11.2017 08:20 4,3 C 3,9 C 3,3 C 97 % 15 lf 1009,2 hPa 0,0 l/m 0 min 0 min 4 W/m 11,3 km/h (2 Bft) 97,87 %
25.11.2017 08:22 4,3 C 3,9 C 3,3 C 97 % 15 lf 1009,2 hPa 0,0 l/m 0 min 0 min 5 W/m 6,8 km/h (2 Bft) 100,00 %
25.11.2017 08:24 4,3 C 3,9 C 3,3 C 97 % 15 lf 1009,3 hPa 0,0 l/m 0 min 0 min 5 W/m 13,5 km/h (3 Bft) 100,00 %
25.11.2017 08:26 4,3 C 3,9 C 2,8 C 97 % 15 lf 1009,4 hPa 0,0 l/m 0 min 0 min 5 W/m 9,0 km/h (2 Bft) 100,00 %
25.11.2017 08:28 4,3 C 3,9 C 2,8 C 97 % 15 lf 1009,4 hPa 0,0 l/m 0 min 0 min 5 W/m 13,5 km/h (3 Bft) 100,00 %
25.11.2017 08:30 4,2 C 3,9 C 2,8 C 97 % 15 lf 1009,5 hPa 0,0 l/m 0 min 0 min 5 W/m 13,5 km/h (3 Bft) 100,00 %
25.11.2017 08:32 4,2 C 3,9 C 2,8 C 97 % 15 lf 1009,5 hPa 0,0 l/m 0 min 0 min 7 W/m 13,5 km/h (3 Bft) 100,00 %
25.11.2017 08:34 4,2 C 3,9 C 2,8 C 97 % 15 lf 1009,5 hPa 0,0 l/m 0 min 0 min 7 W/m 11,3 km/h (2 Bft) 100,00 %
25.11.2017 08:36 4,2 C 3,9 C 2,8 C 97 % 15 lf 1009,5 hPa 0,0 l/m 0 min 0 min 7 W/m 11,3 km/h (2 Bft) 95,74 %
25.11.2017 08:38 4,2 C 3,9 C 2,8 C 97 % 15 lf 1009,5 hPa 0,0 l/m 0 min 0 min 10 W/m 9,0 km/h (2 Bft) 95,65 %
25.11.2017 08:40 4,2 C 3,9 C 2,8 C 97 % 15 lf 1009,5 hPa 0,0 l/m 0 min 0 min 12 W/m 4,5 km/h (1 Bft) 97,87 %
25.11.2017 08:42 4,2 C 3,9 C 2,8 C 97 % 15 lf 1009,5 hPa 0,0 l/m 0 min 0 min 14 W/m 4,5 km/h (1 Bft) 97,87 %
25.11.2017 08:44 4,2 C 3,9 C 2,8 C 97 % 15 lf 1009,6 hPa 0,0 l/m 0 min 0 min 17 W/m 4,5 km/h (1 Bft) 93,62 %
25.11.2017 08:46 4,2 C 3,9 C 2,8 C 97 % 15 lf 1009,6 hPa 0,0 l/m 0 min 0 min 19 W/m 4,5 km/h (1 Bft) 95,74 %
25.11.2017 08:48 4,1 C 3,9 C 2,8 C 97 % 15 lf 1009,6 hPa 0,0 l/m 0 min 0 min 21 W/m 9,0 km/h (2 Bft) 95,74 %
25.11.2017 08:50 4,1 C 3,9 C 2,8 C 97 % 15 lf 1009,7 hPa 0,0 l/m 0 min 0 min 23 W/m 2,3 km/h (1 Bft) 96,15 %
25.11.2017 08:52 4,1 C 3,9 C 2,8 C 97 % 15 lf 1009,7 hPa 0,0 l/m 0 min 0 min 23 W/m 2,3 km/h (1 Bft) 95,12 %
25.11.2017 08:54 4,1 C 3,9 C 2,8 C 97 % 15 lf 1009,8 hPa 0,0 l/m 0 min 0 min 25 W/m 6,8 km/h (2 Bft) 95,74 %
25.11.2017 08:56 4,1 C 3,9 C 2,8 C 97 % 15 lf 1009,7 hPa 0,0 l/m 0 min 0 min 25 W/m 4,5 km/h (1 Bft) 95,74 %
25.11.2017 08:58 4,1 C 3,9 C 2,8 C 97 % 15 lf 1009,8 hPa 0,0 l/m 0 min 0 min 28 W/m 4,5 km/h (1 Bft) 95,74 %
25.11.2017 09:00 4,1 C 3,9 C 2,8 C 97 % 15 lf 1009,8 hPa 0,0 l/m 0 min 0 min 30 W/m 6,8 km/h (2 Bft) 95,74 %
25.11.2017 09:02 4,1 C 3,9 C 2,8 C 97 % 15 lf 1009,9 hPa 0,0 l/m 0 min 0 min 32 W/m 6,8 km/h (2 Bft) 95,65 %
25.11.2017 09:04 4,0 C 3,9 C 3,3 C 97 % 15 lf 1009,9 hPa 0,0 l/m 0 min 0 min 32 W/m 9,0 km/h (2 Bft) 95,74 %
25.11.2017 09:06 4,1 C 3,9 C 3,3 C 97 % 15 lf 1010,0 hPa 0,0 l/m 0 min 0 min 32 W/m 6,8 km/h (2 Bft) 91,49 %
25.11.2017 09:08 4,0 C 3,9 C 3,3 C 97 % 15 lf 1010,1 hPa 0,0 l/m 0 min 0 min 32 W/m 6,8 km/h (2 Bft) 95,74 %
25.11.2017 09:10 4,0 C 3,9 C 3,3 C 97 % 15 lf 1010,1 hPa 0,0 l/m 0 min 0 min 32 W/m 6,8 km/h (2 Bft) 95,74 %
25.11.2017 09:12 4,0 C 3,9 C 3,3 C 97 % 15 lf 1010,2 hPa 0,0 l/m 0 min 0 min 32 W/m 4,5 km/h (1 Bft) 89,36 %
25.11.2017 09:14 4,0 C 3,9 C 3,3 C 97 % 15 lf 1010,2 hPa 0,0 l/m 0 min 0 min 33 W/m 4,5 km/h (1 Bft) 95,65 %
25.11.2017 09:16 4,0 C 3,9 C 3,3 C 96 % 15 lf 1010,2 hPa 0,0 l/m 0 min 0 min 35 W/m 4,5 km/h (1 Bft) 95,74 %
25.11.2017 09:18 4,0 C 4,4 C 3,3 C 97 % 15 lf 1010,2 hPa 0,0 l/m 0 min 0 min 35 W/m 6,8 km/h (2 Bft) 93,62 %
25.11.2017 09:20 4,0 C 4,4 C 3,3 C 96 % 15 lf 1010,1 hPa 0,0 l/m 0 min 0 min 38 W/m 2,3 km/h (1 Bft) 94,34 %
25.11.2017 09:22 4,0 C 4,4 C 3,3 C 96 % 15 lf 1010,1 hPa 0,0 l/m 0 min 0 min 40 W/m 2,3 km/h (1 Bft) 95,12 %
25.11.2017 09:24 4,0 C 4,4 C 3,3 C 96 % 15 lf 1010,1 hPa 0,0 l/m 0 min 0 min 41 W/m 2,3 km/h (1 Bft) 91,30 %
25.11.2017 09:26 4,1 C 4,4 C 3,3 C 96 % 15 lf 1010,1 hPa 0,0 l/m 0 min 0 min 44 W/m 2,3 km/h (1 Bft) 97,87 %
25.11.2017 09:28 4,1 C 4,4 C 3,3 C 96 % 15 lf 1010,2 hPa 0,0 l/m 0 min 0 min 43 W/m 2,3 km/h (1 Bft) 95,74 %
25.11.2017 09:30 4,1 C 4,4 C 3,3 C 96 % 15 lf 1010,2 hPa 0,0 l/m 0 min 0 min 44 W/m 2,3 km/h (1 Bft) 95,74 %
25.11.2017 09:32 4,1 C 4,4 C 3,3 C 96 % 15 lf 1010,3 hPa 0,0 l/m 0 min 0 min 42 W/m 4,5 km/h (1 Bft) 97,87 %
25.11.2017 09:34 4,1 C 4,4 C 3,3 C 96 % 15 lf 1010,2 hPa 0,0 l/m 0 min 0 min 38 W/m 4,5 km/h (1 Bft) 97,87 %
25.11.2017 09:36 4,1 C 4,4 C 3,3 C 97 % 15 lf 1010,2 hPa 0,0 l/m 0 min 0 min 34 W/m 6,8 km/h (2 Bft) 97,87 %
25.11.2017 09:38 4,1 C 4,4 C 3,3 C 97 % 15 lf 1010,3 hPa 0,0 l/m 0 min 0 min 31 W/m 6,8 km/h (2 Bft) 97,83 %
25.11.2017 09:40 4,1 C 4,4 C 3,3 C 97 % 15 lf 1010,3 hPa 0,0 l/m 0 min 0 min 30 W/m 9,0 km/h (2 Bft) 95,74 %
25.11.2017 09:42 4,1 C 4,4 C 3,3 C 97 % 15 lf 1010,4 hPa 0,0 l/m 0 min 0 min 28 W/m 9,0 km/h (2 Bft) 97,87 %
25.11.2017 09:44 4,1 C 4,4 C 3,3 C 97 % 15 lf 1010,4 hPa 0,0 l/m 0 min 0 min 28 W/m 9,0 km/h (2 Bft) 95,74 %
25.11.2017 09:46 4,1 C 3,9 C 3,3 C 97 % 15 lf 1010,4 hPa 0,0 l/m 0 min 0 min 28 W/m 4,5 km/h (1 Bft) 95,74 %
25.11.2017 09:48 4,1 C 3,9 C 3,3 C 97 % 15 lf 1010,4 hPa 0,0 l/m 0 min 0 min 29 W/m 6,8 km/h (2 Bft) 93,48 %
25.11.2017 09:50 4,1 C 3,9 C 3,3 C 97 % 15 lf 1010,4 hPa 0,0 l/m 0 min 0 min 30 W/m 11,3 km/h (2 Bft) 96,23 %
25.11.2017 09:52 4,1 C 3,9 C 3,3 C 97 % 15 lf 1010,4 hPa 0,0 l/m 0 min 0 min 32 W/m 6,8 km/h (2 Bft) 97,56 %
25.11.2017 09:54 4,1 C 3,9 C 3,3 C 97 % 15 lf 1010,5 hPa 0,0 l/m 0 min 0 min 34 W/m 6,8 km/h (2 Bft) 97,87 %
25.11.2017 09:56 4,1 C 3,9 C 3,3 C 97 % 15 lf 1010,5 hPa 0,0 l/m 0 min 0 min 38 W/m 6,8 km/h (2 Bft) 97,87 %
25.11.2017 09:58 4,1 C 3,9 C 3,3 C 97 % 15 lf 1010,4 hPa 0,0 l/m 0 min 0 min 42 W/m 6,8 km/h (2 Bft) 97,87 %
25.11.2017 10:00 4,1 C 4,4 C 3,3 C 97 % 15 lf 1010,5 hPa 0,0 l/m 0 min 0 min 45 W/m 6,8 km/h (2 Bft) 97,83 %
25.11.2017 10:02 4,1 C 4,4 C 3,3 C 97 % 14 lf 1010,5 hPa 0,0 l/m 0 min 0 min 46 W/m 9,0 km/h (2 Bft) 95,74 %
25.11.2017 10:04 4,1 C 4,4 C 3,3 C 97 % 14 lf 1010,5 hPa 0,0 l/m 0 min 0 min 46 W/m 13,5 km/h (3 Bft) 97,87 %
25.11.2017 10:06 4,1 C 4,4 C 3,3 C 97 % 14 lf 1010,6 hPa 0,0 l/m 0 min 0 min 46 W/m 11,3 km/h (2 Bft) 97,87 %
25.11.2017 10:08 4,1 C 4,4 C 3,3 C 97 % 13 lf 1010,6 hPa 0,0 l/m 0 min 0 min 47 W/m 13,5 km/h (3 Bft) 100,00 %
25.11.2017 10:10 4,1 C 4,4 C 3,3 C 97 % 13 lf 1010,6 hPa 0,0 l/m 0 min 0 min 47 W/m 9,0 km/h (2 Bft) 100,00 %
25.11.2017 10:12 4,1 C 4,4 C 3,3 C 97 % 13 lf 1010,6 hPa 0,0 l/m 0 min 0 min 46 W/m 11,3 km/h (2 Bft) 100,00 %
25.11.2017 10:14 4,2 C 4,4 C 3,3 C 97 % 12 lf 1010,5 hPa 0,0 l/m 0 min 0 min 47 W/m 4,5 km/h (1 Bft) 100,00 %
25.11.2017 10:16 4,2 C 4,4 C 3,9 C 97 % 12 lf 1010,5 hPa 0,0 l/m 0 min 0 min 50 W/m 6,8 km/h (2 Bft) 97,87 %
25.11.2017 10:18 4,2 C 4,4 C 3,9 C 97 % 10 lf 1010,6 hPa 0,0 l/m 0 min 0 min 53 W/m 11,3 km/h (2 Bft) 100,00 %
25.11.2017 10:20 4,2 C 4,4 C 3,9 C 97 % 10 lf 1010,6 hPa 0,0 l/m 0 min 0 min 59 W/m 9,0 km/h (2 Bft) 98,08 %
25.11.2017 10:22 4,2 C 4,4 C 3,9 C 97 % 8 lf 1010,6 hPa 0,0 l/m 0 min 0 min 62 W/m 6,8 km/h (2 Bft) 100,00 %
25.11.2017 10:24 4,2 C 4,4 C 3,9 C 97 % 7 lf 1010,7 hPa 0,0 l/m 0 min 0 min 58 W/m 11,3 km/h (2 Bft) 100,00 %
25.11.2017 10:26 4,2 C 4,4 C 3,9 C 97 % 5 lf 1010,7 hPa 0,0 l/m 0 min 0 min 51 W/m 15,8 km/h (3 Bft) 100,00 %
25.11.2017 10:28 4,2 C 4,4 C 3,3 C 97 % 4 lf 1010,7 hPa 0,0 l/m 0 min 0 min 43 W/m 6,8 km/h (2 Bft) 97,87 %
25.11.2017 10:30 4,2 C 4,4 C 3,3 C 97 % 4 lf 1010,8 hPa 0,0 l/m 0 min 0 min 38 W/m 13,5 km/h (3 Bft) 100,00 %
25.11.2017 10:32 4,2 C 4,4 C 3,3 C 96 % 3 lf 1010,7 hPa 0,0 l/m 0 min 0 min 35 W/m 13,5 km/h (3 Bft) 97,87 %
25.11.2017 10:34 4,2 C 4,4 C 3,3 C 96 % 3 lf 1010,7 hPa 0,0 l/m 0 min 0 min 34 W/m 15,8 km/h (3 Bft) 100,00 %
25.11.2017 10:36 4,2 C 4,4 C 3,3 C 96 % 3 lf 1010,7 hPa 0,0 l/m 0 min 0 min 32 W/m 9,0 km/h (2 Bft) 100,00 %
25.11.2017 10:38 4,2 C 4,4 C 3,3 C 96 % 3 lf 1010,7 hPa 0,0 l/m 0 min 0 min 33 W/m 11,3 km/h (2 Bft) 100,00 %
25.11.2017 10:40 4,2 C 4,4 C 3,3 C 96 % 2 lf 1010,7 hPa 0,0 l/m 0 min 0 min 37 W/m 11,3 km/h (2 Bft) 100,00 %
25.11.2017 10:42 4,2 C 3,9 C 3,3 C 96 % 2 lf 1010,7 hPa 0,0 l/m 0 min 0 min 43 W/m 13,5 km/h (3 Bft) 97,87 %
25.11.2017 10:44 4,2 C 3,9 C 3,3 C 96 % 2 lf 1010,8 hPa 0,0 l/m 0 min 0 min 52 W/m 13,5 km/h (3 Bft) 95,74 %
25.11.2017 10:46 4,2 C 4,4 C 3,3 C 96 % 1 lf 1010,8 hPa 0,0 l/m 0 min 0 min 68 W/m 9,0 km/h (2 Bft) 97,83 %
25.11.2017 10:48 4,2 C 4,4 C 3,9 C 96 % 1 lf 1010,8 hPa 0,0 l/m 0 min 0 min 83 W/m 9,0 km/h (2 Bft) 97,87 %
25.11.2017 10:50 4,2 C 4,4 C 3,9 C 96 % 1 lf 1010,8 hPa 0,0 l/m 0 min 0 min 95 W/m 11,3 km/h (2 Bft) 98,11 %
25.11.2017 10:52 4,2 C 5,0 C 3,9 C 96 % 0 lf 1010,8 hPa 0,0 l/m 0 min 0 min 107 W/m 11,3 km/h (2 Bft) 97,56 %
25.11.2017 10:54 4,2 C 5,0 C 3,9 C 96 % 0 lf 1010,8 hPa 0,0 l/m 0 min 0 min 119 W/m 13,5 km/h (3 Bft) 89,36 %
25.11.2017 10:56 4,2 C 5,0 C 3,9 C 96 % 0 lf 1010,7 hPa 0,0 l/m 0 min 0 min 118 W/m 15,8 km/h (3 Bft) 97,87 %
25.11.2017 10:58 4,2 C 5,6 C 3,9 C 96 % 0 lf 1010,8 hPa 0,0 l/m 0 min 0 min 110 W/m 13,5 km/h (3 Bft) 97,87 %
25.11.2017 11:00 4,2 C 5,6 C 3,9 C 96 % 0 lf 1010,7 hPa 0,0 l/m 0 min 0 min 109 W/m 9,0 km/h (2 Bft) 97,83 %
25.11.2017 11:02 4,2 C 5,6 C 3,3 C 96 % 0 lf 1010,7 hPa 0,0 l/m 0 min 0 min 101 W/m 11,3 km/h (2 Bft) 97,87 %
25.11.2017 11:04 4,2 C 5,6 C 3,3 C 96 % 0 lf 1010,7 hPa 0,0 l/m 0 min 0 min 97 W/m 9,0 km/h (2 Bft) 97,87 %
25.11.2017 11:06 4,3 C 6,1 C 3,3 C 96 % 0 lf 1010,7 hPa 0,0 l/m 0 min 0 min 111 W/m 11,3 km/h (2 Bft) 95,74 %
25.11.2017 11:08 4,3 C 6,7 C 3,3 C 96 % 0 lf 1010,7 hPa 0,0 l/m 0 min 0 min 135 W/m 9,0 km/h (2 Bft) 97,87 %
25.11.2017 11:10 4,3 C 8,3 C 3,3 C 96 % 0 lf 1010,7 hPa 0,0 l/m 2 min 0 min 142 W/m 6,8 km/h (2 Bft) 97,83 %
25.11.2017 11:12 4,3 C 10,6 C 3,9 C 96 % 0 lf 1010,7 hPa 0,0 l/m 2 min 0 min 277 W/m 4,5 km/h (1 Bft) 95,74 %
25.11.2017 11:16 4,4 C 10,0 C 3,9 C 96 % 0 lf 1010,7 hPa 0,0 l/m 4 min 0 min 216 W/m 6,8 km/h (2 Bft) 96,00 %
25.11.2017 11:18 4,4 C 9,4 C 3,9 C 96 % 0 lf 1010,7 hPa 0,0 l/m 2 min 0 min 182 W/m 9,0 km/h (2 Bft) 94,83 %
25.11.2017 11:20 4,5 C 10,0 C 3,9 C 96 % 0 lf 1010,8 hPa 0,0 l/m 2 min 0 min 226 W/m 9,0 km/h (2 Bft) 95,74 %
25.11.2017 11:22 4,6 C 10,0 C 3,9 C 96 % 0 lf 1010,8 hPa 0,0 l/m 2 min 0 min 197 W/m 11,3 km/h (2 Bft) 97,87 %
25.11.2017 11:24 4,6 C 10,0 C 3,9 C 96 % 0 lf 1010,8 hPa 0,0 l/m 2 min 0 min 194 W/m 9,0 km/h (2 Bft) 95,74 %
25.11.2017 11:26 4,7 C 9,4 C 3,9 C 96 % 0 lf 1010,8 hPa 0,0 l/m 2 min 0 min 187 W/m 11,3 km/h (2 Bft) 97,14 %
25.11.2017 11:28 4,7 C 10,0 C 4,4 C 96 % 0 lf 1010,8 hPa 0,0 l/m 2 min 0 min 234 W/m 9,0 km/h (2 Bft) 94,44 %
25.11.2017 11:30 4,8 C 10,6 C 4,4 C 97 % 0 lf 1010,8 hPa 0,0 l/m 2 min 0 min 283 W/m 11,3 km/h (2 Bft) 95,74 %
25.11.2017 11:32 4,8 C 11,7 C 4,4 C 96 % 0 lf 1010,7 hPa 0,0 l/m 2 min 0 min 312 W/m 11,3 km/h (2 Bft) 89,36 %
25.11.2017 11:34 4,9 C 11,7 C 4,4 C 96 % 0 lf 1010,8 hPa 0,0 l/m 2 min 0 min 298 W/m 13,5 km/h (3 Bft) 91,84 %
25.11.2017 11:36 5,0 C 12,2 C 5,0 C 96 % 0 lf 1010,8 hPa 0,0 l/m 2 min 0 min 316 W/m 13,5 km/h (3 Bft) 85,71 %
25.11.2017 11:38 5,0 C 11,1 C 5,0 C 96 % 0 lf 1010,8 hPa 0,0 l/m 2 min 0 min 224 W/m 15,8 km/h (3 Bft) 93,62 %
25.11.2017 11:40 5,1 C 10,0 C 5,0 C 97 % 0 lf 1010,9 hPa 0,0 l/m 2 min 0 min 211 W/m 13,5 km/h (3 Bft) 93,62 %
25.11.2017 11:42 5,2 C 10,0 C 5,0 C 97 % 0 lf 1010,8 hPa 0,0 l/m 2 min 0 min 215 W/m 9,0 km/h (2 Bft) 93,48 %
25.11.2017 11:44 5,2 C 10,0 C 5,0 C 96 % 0 lf 1010,8 hPa 0,0 l/m 2 min 0 min 214 W/m 11,3 km/h (2 Bft) 94,44 %
25.11.2017 11:46 5,3 C 10,6 C 5,0 C 96 % 0 lf 1010,7 hPa 0,0 l/m 2 min 0 min 226 W/m 4,5 km/h (1 Bft) 93,48 %
25.11.2017 11:52 5,4 C 10,0 C 5,0 C 96 % 0 lf 1010,8 hPa 0,0 l/m 5 min 0 min 175 W/m 11,3 km/h (2 Bft) 93,62 %
25.11.2017 11:54 5,5 C 10,0 C 5,0 C 96 % 0 lf 1010,8 hPa 0,0 l/m 2 min 0 min 174 W/m 15,8 km/h (3 Bft) 93,62 %
25.11.2017 11:56 5,6 C 10,0 C 5,0 C 96 % 0 lf 1010,8 hPa 0,0 l/m 2 min 0 min 176 W/m 18,0 km/h (3 Bft) 93,48 %
25.11.2017 11:58 5,6 C 10,0 C 5,0 C 96 % 0 lf 1010,8 hPa 0,0 l/m 2 min 0 min 181 W/m 15,8 km/h (3 Bft) 91,49 %
25.11.2017 12:00 5,6 C 10,0 C 4,4 C 96 % 0 lf 1010,8 hPa 0,0 l/m 2 min 0 min 188 W/m 18,0 km/h (3 Bft) 93,62 %
25.11.2017 12:02 5,6 C 10,0 C 4,4 C 96 % 0 lf 1010,8 hPa 0,0 l/m 2 min 0 min 165 W/m 20,3 km/h (4 Bft) 89,36 %
25.11.2017 12:04 5,7 C 10,0 C 4,4 C 96 % 0 lf 1010,9 hPa 0,0 l/m 2 min 0 min 172 W/m 20,3 km/h (4 Bft) 93,62 %
25.11.2017 12:06 5,7 C 9,4 C 4,4 C 95 % 0 lf 1010,9 hPa 0,0 l/m 0 min 0 min 151 W/m 13,5 km/h (3 Bft) 91,49 %
25.11.2017 12:10 5,7 C 9,4 C 4,4 C 95 % 0 lf 1010,9 hPa 0,0 l/m 4 min 0 min 155 W/m 15,8 km/h (3 Bft) 92,93 %
25.11.2017 12:12 5,7 C 9,4 C 4,4 C 95 % 0 lf 1010,9 hPa 0,0 l/m 2 min 0 min 156 W/m 18,0 km/h (3 Bft) 93,62 %
25.11.2017 12:14 5,7 C 9,4 C 4,4 C 95 % 0 lf 1010,9 hPa 0,0 l/m 2 min 0 min 163 W/m 15,8 km/h (3 Bft) 93,62 %
25.11.2017 12:16 5,7 C 9,4 C 4,4 C 94 % 0 lf 1010,9 hPa 0,0 l/m 2 min 0 min 173 W/m 15,8 km/h (3 Bft) 95,74 %
25.11.2017 12:18 5,7 C 10,0 C 4,4 C 94 % 0 lf 1011,0 hPa 0,0 l/m 0 min 0 min 146 W/m 18,0 km/h (3 Bft) 91,49 %
25.11.2017 12:20 5,7 C 9,4 C 3,9 C 94 % 0 lf 1011,0 hPa 0,0 l/m 0 min 0 min 154 W/m 15,8 km/h (3 Bft) 95,74 %
25.11.2017 12:22 5,7 C 9,4 C 3,9 C 94 % 0 lf 1011,0 hPa 0,0 l/m 0 min 0 min 145 W/m 13,5 km/h (3 Bft) 93,48 %
25.11.2017 12:24 5,8 C 9,4 C 3,9 C 94 % 0 lf 1011,1 hPa 0,0 l/m 0 min 0 min 144 W/m 20,3 km/h (4 Bft) 95,74 %
25.11.2017 12:26 5,7 C 8,9 C 3,9 C 93 % 0 lf 1011,1 hPa 0,0 l/m 0 min 0 min 141 W/m 15,8 km/h (3 Bft) 95,74 %
25.11.2017 12:28 5,7 C 8,3 C 3,9 C 93 % 0 lf 1011,1 hPa 0,0 l/m 0 min 0 min 133 W/m 22,5 km/h (4 Bft) 95,74 %
25.11.2017 12:30 5,7 C 7,8 C 3,9 C 93 % 0 lf 1011,1 hPa 0,0 l/m 0 min 0 min 132 W/m 15,8 km/h (3 Bft) 97,87 %
25.11.2017 12:32 5,7 C 7,8 C 3,9 C 92 % 0 lf 1011,1 hPa 0,0 l/m 0 min 0 min 121 W/m 22,5 km/h (4 Bft) 95,65 %
25.11.2017 12:34 5,7 C 7,8 C 3,9 C 92 % 0 lf 1011,1 hPa 0,0 l/m 0 min 0 min 128 W/m 11,3 km/h (2 Bft) 95,74 %
25.11.2017 12:36 5,7 C 7,8 C 3,9 C 92 % 0 lf 1011,1 hPa 0,0 l/m 2 min 0 min 171 W/m 20,3 km/h (4 Bft) 91,49 %
25.11.2017 12:38 5,7 C 9,4 C 4,4 C 92 % 0 lf 1011,1 hPa 0,0 l/m 2 min 0 min 238 W/m 9,0 km/h (2 Bft) 95,74 %
25.11.2017 12:40 5,7 C 11,1 C 4,4 C 92 % 0 lf 1011,1 hPa 0,0 l/m 2 min 0 min 259 W/m 11,3 km/h (2 Bft) 97,87 %
25.11.2017 12:42 5,7 C 12,8 C 4,4 C 92 % 0 lf 1011,2 hPa 0,0 l/m 2 min 0 min 286 W/m 15,8 km/h (3 Bft) 97,87 %
25.11.2017 12:44 5,8 C 13,9 C 5,0 C 92 % 0 lf 1011,1 hPa 0,0 l/m 2 min 0 min 309 W/m 15,8 km/h (3 Bft) 100,00 %
25.11.2017 12:46 5,8 C 13,9 C 5,0 C 92 % 0 lf 1011,1 hPa 0,0 l/m 2 min 0 min 264 W/m 13,5 km/h (3 Bft) 100,00 %
25.11.2017 12:48 5,9 C 13,3 C 5,0 C 92 % 0 lf 1011,2 hPa 0,0 l/m 2 min 0 min 208 W/m 9,0 km/h (2 Bft) 100,00 %
25.11.2017 12:50 5,9 C 11,7 C 5,0 C 92 % 0 lf 1011,1 hPa 0,0 l/m 2 min 0 min 182 W/m 11,3 km/h (2 Bft) 100,00 %
25.11.2017 12:52 6,0 C 11,1 C 5,0 C 92 % 0 lf 1011,1 hPa 0,0 l/m 2 min 0 min 187 W/m 18,0 km/h (3 Bft) 100,00 %
25.11.2017 12:54 6,1 C 10,0 C 5,0 C 92 % 0 lf 1011,1 hPa 0,0 l/m 2 min 0 min 189 W/m 15,8 km/h (3 Bft) 97,87 %
25.11.2017 12:56 6,1 C 10,0 C 5,6 C 92 % 0 lf 1011,2 hPa 0,0 l/m 2 min 0 min 190 W/m 9,0 km/h (2 Bft) 97,83 %
25.11.2017 12:58 6,2 C 10,0 C 5,6 C 91 % 0 lf 1011,1 hPa 0,0 l/m 2 min 0 min 210 W/m 18,0 km/h (3 Bft) 97,87 %
25.11.2017 13:00 6,2 C 10,0 C 5,6 C 91 % 0 lf 1011,2 hPa 0,0 l/m 2 min 0 min 214 W/m 13,5 km/h (3 Bft) 97,87 %
25.11.2017 13:02 6,3 C 10,6 C 6,1 C 91 % 0 lf 1011,1 hPa 0,0 l/m 2 min 0 min 250 W/m 11,3 km/h (2 Bft) 97,87 %
25.11.2017 13:04 6,3 C 11,7 C 6,1 C 91 % 0 lf 1011,2 hPa 0,0 l/m 2 min 0 min 267 W/m 13,5 km/h (3 Bft) 100,00 %
25.11.2017 13:06 6,4 C 13,3 C 6,7 C 91 % 0 lf 1011,2 hPa 0,0 l/m 2 min 0 min 320 W/m 13,5 km/h (3 Bft) 100,00 %
25.11.2017 13:08 6,5 C 14,4 C 6,7 C 91 % 0 lf 1011,3 hPa 0,0 l/m 2 min 0 min 375 W/m 11,3 km/h (2 Bft) 97,83 %
25.11.2017 13:10 6,6 C 14,4 C 6,7 C 91 % 0 lf 1011,2 hPa 0,0 l/m 2 min 0 min 277 W/m 15,8 km/h (3 Bft) 97,87 %
25.11.2017 13:12 6,7 C 12,8 C 6,7 C 91 % 0 lf 1011,2 hPa 0,0 l/m 2 min 0 min 266 W/m 15,8 km/h (3 Bft) 100,00 %
25.11.2017 13:14 6,8 C 11,7 C 6,7 C 91 % 0 lf 1011,3 hPa 0,0 l/m 0 min 0 min 141 W/m 11,3 km/h (2 Bft) 95,74 %
25.11.2017 13:16 6,8 C 10,6 C 6,1 C 90 % 0 lf 1011,3 hPa 0,0 l/m 0 min 0 min 116 W/m 20,3 km/h (4 Bft) 95,74 %
25.11.2017 13:18 6,9 C 9,4 C 6,1 C 90 % 0 lf 1011,3 hPa 0,0 l/m 0 min 0 min 105 W/m 20,3 km/h (4 Bft) 95,74 %
25.11.2017 13:20 6,9 C 8,9 C 6,1 C 90 % 0 lf 1011,3 hPa 0,0 l/m 0 min 0 min 107 W/m 18,0 km/h (3 Bft) 97,83 %
25.11.2017 13:22 6,9 C 8,3 C 5,6 C 89 % 0 lf 1011,3 hPa 0,0 l/m 0 min 0 min 121 W/m 22,5 km/h (4 Bft) 97,87 %
25.11.2017 13:24 6,9 C 7,8 C 5,6 C 89 % 0 lf 1011,3 hPa 0,0 l/m 0 min 0 min 130 W/m 27,0 km/h (4 Bft) 100,00 %
25.11.2017 13:26 6,9 C 7,8 C 5,6 C 89 % 0 lf 1011,2 hPa 0,0 l/m 0 min 0 min 134 W/m 18,0 km/h (3 Bft) 97,87 %
25.11.2017 13:28 6,9 C 8,3 C 5,6 C 88 % 0 lf 1011,2 hPa 0,0 l/m 0 min 0 min 132 W/m 13,5 km/h (3 Bft) 97,87 %
25.11.2017 13:30 7,0 C 8,3 C 5,6 C 88 % 0 lf 1011,2 hPa 0,0 l/m 0 min 0 min 126 W/m 13,5 km/h (3 Bft) 95,74 %
25.11.2017 13:32 6,9 C 7,8 C 5,6 C 88 % 0 lf 1011,3 hPa 0,0 l/m 0 min 0 min 121 W/m 18,0 km/h (3 Bft) 97,83 %
25.11.2017 13:34 6,9 C 7,8 C 5,6 C 88 % 0 lf 1011,3 hPa 0,0 l/m 0 min 0 min 126 W/m 20,3 km/h (4 Bft) 97,87 %
25.11.2017 13:36 6,9 C 8,3 C 5,6 C 87 % 0 lf 1011,3 hPa 0,0 l/m 0 min 0 min 139 W/m 11,3 km/h (2 Bft) 97,87 %
25.11.2017 13:38 6,9 C 8,3 C 5,6 C 87 % 0 lf 1011,3 hPa 0,0 l/m 2 min 0 min 154 W/m 18,0 km/h (3 Bft) 97,87 %
25.11.2017 13:40 6,9 C 8,3 C 5,6 C 87 % 0 lf 1011,4 hPa 0,0 l/m 2 min 0 min 145 W/m 13,5 km/h (3 Bft) 97,87 %
25.11.2017 13:42 6,9 C 8,3 C 5,6 C 87 % 0 lf 1011,4 hPa 0,0 l/m 0 min 0 min 132 W/m 13,5 km/h (3 Bft) 97,87 %
25.11.2017 13:44 6,9 C 8,3 C 5,6 C 86 % 0 lf 1011,4 hPa 0,0 l/m 0 min 0 min 122 W/m 13,5 km/h (3 Bft) 93,48 %
25.11.2017 13:46 6,9 C 7,8 C 5,6 C 86 % 0 lf 1011,4 hPa 0,0 l/m 0 min 0 min 114 W/m 22,5 km/h (4 Bft) 95,74 %
25.11.2017 13:48 6,9 C 7,8 C 5,0 C 86 % 0 lf 1011,5 hPa 0,0 l/m 0 min 0 min 111 W/m 15,8 km/h (3 Bft) 97,87 %
25.11.2017 13:50 6,8 C 7,8 C 5,0 C 86 % 0 lf 1011,5 hPa 0,0 l/m 0 min 0 min 108 W/m 29,3 km/h (5 Bft) 97,87 %
25.11.2017 13:52 6,8 C 7,2 C 5,0 C 86 % 0 lf 1011,5 hPa 0,0 l/m 0 min 0 min 110 W/m 24,8 km/h (4 Bft) 97,87 %
25.11.2017 13:54 6,8 C 7,2 C 5,0 C 86 % 0 lf 1011,4 hPa 0,0 l/m 0 min 0 min 112 W/m 20,3 km/h (4 Bft) 97,83 %
25.11.2017 13:56 6,7 C 7,2 C 5,0 C 86 % 0 lf 1011,5 hPa 0,0 l/m 0 min 0 min 113 W/m 18,0 km/h (3 Bft) 97,87 %
25.11.2017 13:58 6,7 C 7,2 C 5,0 C 86 % 0 lf 1011,5 hPa 0,0 l/m 0 min 0 min 113 W/m 18,0 km/h (3 Bft) 97,87 %
25.11.2017 14:00 6,7 C 7,2 C 5,0 C 86 % 0 lf 1011,6 hPa 0,0 l/m 0 min 0 min 112 W/m 18,0 km/h (3 Bft) 93,62 %
25.11.2017 14:02 6,7 C 7,2 C 5,0 C 86 % 0 lf 1011,6 hPa 0,0 l/m 0 min 0 min 109 W/m 15,8 km/h (3 Bft) 97,87 %
25.11.2017 14:04 6,7 C 7,2 C 5,0 C 86 % 0 lf 1011,5 hPa 0,0 l/m 0 min 0 min 109 W/m 13,5 km/h (3 Bft) 93,62 %
25.11.2017 14:06 6,6 C 7,2 C 5,0 C 87 % 0 lf 1011,6 hPa 0,0 l/m 0 min 0 min 109 W/m 15,8 km/h (3 Bft) 93,48 %
25.11.2017 14:08 6,6 C 7,2 C 5,0 C 86 % 0 lf 1011,6 hPa 0,0 l/m 0 min 0 min 107 W/m 15,8 km/h (3 Bft) 97,87 %
25.11.2017 14:10 6,6 C 7,2 C 5,0 C 87 % 0 lf 1011,6 hPa 0,0 l/m 0 min 0 min 107 W/m 15,8 km/h (3 Bft) 97,87 %
25.11.2017 14:12 6,6 C 7,2 C 5,0 C 87 % 0 lf 1011,6 hPa 0,0 l/m 0 min 0 min 105 W/m 13,5 km/h (3 Bft) 95,74 %
25.11.2017 14:14 6,6 C 7,2 C 5,0 C 87 % 0 lf 1011,7 hPa 0,0 l/m 0 min 0 min 101 W/m 18,0 km/h (3 Bft) 95,74 %
25.11.2017 14:16 6,6 C 7,2 C 5,0 C 87 % 0 lf 1011,7 hPa 0,0 l/m 0 min 0 min 99 W/m 13,5 km/h (3 Bft) 95,74 %
25.11.2017 14:18 6,6 C 7,2 C 5,0 C 87 % 0 lf 1011,6 hPa 0,0 l/m 0 min 0 min 98 W/m 13,5 km/h (3 Bft) 93,48 %
25.11.2017 14:20 6,6 C 7,2 C 5,0 C 87 % 0 lf 1011,7 hPa 0,0 l/m 0 min 0 min 95 W/m 13,5 km/h (3 Bft) 93,62 %
25.11.2017 14:22 6,5 C 7,2 C 5,0 C 87 % 0 lf 1011,7 hPa 0,0 l/m 0 min 0 min 93 W/m 11,3 km/h (2 Bft) 95,74 %
25.11.2017 14:24 6,6 C 7,2 C 5,0 C 87 % 0 lf 1011,7 hPa 0,0 l/m 0 min 0 min 95 W/m 15,8 km/h (3 Bft) 95,74 %
25.11.2017 14:26 6,5 C 7,2 C 5,0 C 87 % 0 lf 1011,7 hPa 0,0 l/m 0 min 0 min 96 W/m 11,3 km/h (2 Bft) 95,74 %
25.11.2017 14:28 6,5 C 7,2 C 5,0 C 88 % 0 lf 1011,7 hPa 0,0 l/m 0 min 0 min 97 W/m 22,5 km/h (4 Bft) 95,74 %
25.11.2017 14:30 6,5 C 6,7 C 5,0 C 88 % 0 lf 1011,7 hPa 0,0 l/m 0 min 0 min 95 W/m 22,5 km/h (4 Bft) 95,65 %
25.11.2017 14:32 6,4 C 6,7 C 5,0 C 87 % 0 lf 1011,8 hPa 0,0 l/m 0 min 0 min 96 W/m 18,0 km/h (3 Bft) 93,62 %
25.11.2017 14:34 6,4 C 6,7 C 5,0 C 87 % 0 lf 1011,8 hPa 0,0 l/m 0 min 0 min 97 W/m 22,5 km/h (4 Bft) 89,36 %
25.11.2017 14:36 6,4 C 6,7 C 5,0 C 87 % 0 lf 1011,8 hPa 0,0 l/m 0 min 0 min 97 W/m 20,3 km/h (4 Bft) 95,74 %
25.11.2017 14:38 6,4 C 6,7 C 5,0 C 87 % 0 lf 1011,8 hPa 0,0 l/m 0 min 0 min 97 W/m 18,0 km/h (3 Bft) 95,74 %
25.11.2017 14:40 6,4 C 6,7 C 5,0 C 87 % 0 lf 1011,8 hPa 0,0 l/m 0 min 0 min 96 W/m 22,5 km/h (4 Bft) 89,36 %
25.11.2017 14:42 6,4 C 6,7 C 5,0 C 87 % 0 lf 1011,8 hPa 0,0 l/m 0 min 0 min 93 W/m 15,8 km/h (3 Bft) 95,65 %
25.11.2017 14:44 6,3 C 6,7 C 5,0 C 87 % 0 lf 1011,9 hPa 0,0 l/m 0 min 0 min 91 W/m 15,8 km/h (3 Bft) 95,74 %
25.11.2017 14:46 6,4 C 6,7 C 5,0 C 88 % 0 lf 1011,9 hPa 0,0 l/m 0 min 0 min 88 W/m 15,8 km/h (3 Bft) 95,74 %
25.11.2017 14:48 6,3 C 6,7 C 5,0 C 88 % 0 lf 1011,9 hPa 0,0 l/m 0 min 0 min 84 W/m 11,3 km/h (2 Bft) 95,74 %
25.11.2017 14:50 6,3 C 6,7 C 5,0 C 88 % 0 lf 1012,0 hPa 0,0 l/m 0 min 0 min 83 W/m 13,5 km/h (3 Bft) 97,87 %
25.11.2017 14:52 6,3 C 6,7 C 5,0 C 88 % 0 lf 1012,0 hPa 0,0 l/m 0 min 0 min 81 W/m 13,5 km/h (3 Bft) 95,74 %
25.11.2017 14:54 6,3 C 6,7 C 5,0 C 88 % 0 lf 1012,0 hPa 0,0 l/m 0 min 0 min 79 W/m 13,5 km/h (3 Bft) 100,00 %
25.11.2017 14:56 6,3 C 6,7 C 5,0 C 88 % 0 lf 1012,1 hPa 0,0 l/m 0 min 0 min 77 W/m 13,5 km/h (3 Bft) 97,87 %
25.11.2017 14:58 6,3 C 6,7 C 4,4 C 88 % 0 lf 1012,1 hPa 0,0 l/m 0 min 0 min 77 W/m 18,0 km/h (3 Bft) 100,00 %
25.11.2017 15:00 6,3 C 6,7 C 5,0 C 88 % 0 lf 1012,1 hPa 0,0 l/m 0 min 0 min 77 W/m 18,0 km/h (3 Bft) 100,00 %
25.11.2017 15:02 6,3 C 6,7 C 4,4 C 88 % 0 lf 1012,1 hPa 0,0 l/m 0 min 0 min 77 W/m 18,0 km/h (3 Bft) 100,00 %
25.11.2017 15:04 6,3 C 6,7 C 4,4 C 88 % 0 lf 1012,1 hPa 0,0 l/m 0 min 0 min 76 W/m 13,5 km/h (3 Bft) 100,00 %
25.11.2017 15:06 6,2 C 6,7 C 4,4 C 88 % 0 lf 1012,1 hPa 0,0 l/m 0 min 0 min 75 W/m 11,3 km/h (2 Bft) 97,83 %
25.11.2017 15:08 6,2 C 6,7 C 4,4 C 88 % 0 lf 1012,2 hPa 0,0 l/m 0 min 0 min 72 W/m 20,3 km/h (4 Bft) 95,74 %
25.11.2017 15:10 6,2 C 6,7 C 4,4 C 88 % 0 lf 1012,2 hPa 0,0 l/m 0 min 0 min 71 W/m 20,3 km/h (4 Bft) 95,74 %
25.11.2017 15:12 6,2 C 6,1 C 4,4 C 88 % 0 lf 1012,2 hPa 0,0 l/m 0 min 0 min 70 W/m 15,8 km/h (3 Bft) 97,87 %
25.11.2017 15:14 6,2 C 6,1 C 4,4 C 88 % 0 lf 1012,2 hPa 0,0 l/m 0 min 0 min 69 W/m 18,0 km/h (3 Bft) 97,87 %
25.11.2017 15:16 6,2 C 6,1 C 4,4 C 88 % 0 lf 1012,2 hPa 0,0 l/m 0 min 0 min 67 W/m 18,0 km/h (3 Bft) 97,83 %
25.11.2017 15:18 6,2 C 6,1 C 4,4 C 88 % 0 lf 1012,2 hPa 0,0 l/m 0 min 0 min 67 W/m 15,8 km/h (3 Bft) 97,87 %
25.11.2017 15:20 6,1 C 6,1 C 4,4 C 88 % 0 lf 1012,2 hPa 0,0 l/m 0 min 0 min 67 W/m 11,3 km/h (2 Bft) 97,87 %
25.11.2017 15:22 6,1 C 6,1 C 4,4 C 88 % 0 lf 1012,2 hPa 0,0 l/m 0 min 0 min 65 W/m 13,5 km/h (3 Bft) 95,74 %
25.11.2017 15:24 6,1 C 6,1 C 4,4 C 88 % 0 lf 1012,2 hPa 0,0 l/m 0 min 0 min 63 W/m 9,0 km/h (2 Bft) 95,74 %
25.11.2017 15:26 6,1 C 6,1 C 4,4 C 88 % 0 lf 1012,3 hPa 0,0 l/m 0 min 0 min 61 W/m 11,3 km/h (2 Bft) 97,87 %
25.11.2017 15:28 6,1 C 6,1 C 4,4 C 89 % 0 lf 1012,3 hPa 0,0 l/m 0 min 0 min 56 W/m 13,5 km/h (3 Bft) 97,83 %
25.11.2017 15:30 6,1 C 6,1 C 4,4 C 89 % 0 lf 1012,3 hPa 0,0 l/m 0 min 0 min 54 W/m 13,5 km/h (3 Bft) 97,87 %
25.11.2017 15:32 6,1 C 6,1 C 4,4 C 89 % 0 lf 1012,3 hPa 0,0 l/m 0 min 0 min 54 W/m 15,8 km/h (3 Bft) 97,87 %
25.11.2017 15:34 6,1 C 6,1 C 4,4 C 89 % 0 lf 1012,3 hPa 0,0 l/m 0 min 0 min 54 W/m 15,8 km/h (3 Bft) 97,87 %
25.11.2017 15:36 6,1 C 6,1 C 4,4 C 89 % 0 lf 1012,3 hPa 0,0 l/m 0 min 0 min 52 W/m 18,0 km/h (3 Bft) 97,87 %
25.11.2017 15:38 6,0 C 6,1 C 4,4 C 89 % 0 lf 1012,3 hPa 0,0 l/m 0 min 0 min 51 W/m 13,5 km/h (3 Bft) 93,62 %
25.11.2017 15:40 6,0 C 6,1 C 4,4 C 88 % 0 lf 1012,4 hPa 0,0 l/m 2 min 0 min 54 W/m 15,8 km/h (3 Bft) 95,65 %
25.11.2017 15:42 6,0 C 6,1 C 4,4 C 88 % 0 lf 1012,4 hPa 0,0 l/m 2 min 0 min 59 W/m 11,3 km/h (2 Bft) 97,87 %
25.11.2017 15:44 6,0 C 6,1 C 4,4 C 88 % 0 lf 1012,4 hPa 0,0 l/m 2 min 0 min 58 W/m 13,5 km/h (3 Bft) 97,87 %
25.11.2017 15:46 6,0 C 6,1 C 4,4 C 88 % 0 lf 1012,4 hPa 0,0 l/m 2 min 0 min 52 W/m 15,8 km/h (3 Bft) 93,62 %
25.11.2017 15:48 6,0 C 6,1 C 3,9 C 88 % 0 lf 1012,4 hPa 0,0 l/m 2 min 0 min 46 W/m 18,0 km/h (3 Bft) 97,87 %
25.11.2017 15:50 5,9 C 6,1 C 3,9 C 88 % 0 lf 1012,4 hPa 0,0 l/m 2 min 0 min 42 W/m 13,5 km/h (3 Bft) 97,87 %
25.11.2017 15:52 6,0 C 6,1 C 3,9 C 88 % 0 lf 1012,5 hPa 0,0 l/m 2 min 0 min 40 W/m 13,5 km/h (3 Bft) 97,83 %
25.11.2017 15:54 5,9 C 6,1 C 3,9 C 88 % 0 lf 1012,5 hPa 0,0 l/m 2 min 0 min 39 W/m 18,0 km/h (3 Bft) 93,62 %
25.11.2017 15:56 5,9 C 5,6 C 3,9 C 88 % 0 lf 1012,5 hPa 0,0 l/m 2 min 0 min 37 W/m 11,3 km/h (2 Bft) 100,00 %
25.11.2017 15:58 5,9 C 5,6 C 3,9 C 88 % 0 lf 1012,5 hPa 0,0 l/m 2 min 0 min 36 W/m 11,3 km/h (2 Bft) 100,00 %
25.11.2017 16:00 5,9 C 5,6 C 3,9 C 88 % 0 lf 1012,5 hPa 0,0 l/m 2 min 0 min 34 W/m 18,0 km/h (3 Bft) 97,87 %
25.11.2017 16:02 5,9 C 5,6 C 3,9 C 88 % 0 lf 1012,5 hPa 0,0 l/m 2 min 0 min 32 W/m 15,8 km/h (3 Bft) 97,87 %
25.11.2017 16:04 5,9 C 5,6 C 3,9 C 88 % 0 lf 1012,5 hPa 0,0 l/m 2 min 0 min 30 W/m 15,8 km/h (3 Bft) 100,00 %
25.11.2017 16:06 5,8 C 5,6 C 3,9 C 88 % 0 lf 1012,5 hPa 0,0 l/m 2 min 0 min 29 W/m 11,3 km/h (2 Bft) 97,87 %
25.11.2017 16:08 5,8 C 5,6 C 3,9 C 88 % 0 lf 1012,6 hPa 0,0 l/m 2 min 0 min 27 W/m 11,3 km/h (2 Bft) 100,00 %
25.11.2017 16:10 5,8 C 5,6 C 3,9 C 88 % 0 lf 1012,6 hPa 0,0 l/m 2 min 0 min 24 W/m 11,3 km/h (2 Bft) 100,00 %
25.11.2017 16:12 5,8 C 5,6 C 3,3 C 88 % 0 lf 1012,6 hPa 0,0 l/m 2 min 0 min 22 W/m 15,8 km/h (3 Bft) 97,87 %
25.11.2017 16:14 5,8 C 5,0 C 3,9 C 88 % 0 lf 1012,7 hPa 0,0 l/m 0 min 0 min 18 W/m 22,5 km/h (4 Bft) 95,74 %
25.11.2017 16:16 5,7 C 5,0 C 3,9 C 88 % 0 lf 1012,7 hPa 0,0 l/m 0 min 0 min 16 W/m 18,0 km/h (3 Bft) 95,65 %
25.11.2017 16:18 5,7 C 5,0 C 3,9 C 88 % 0 lf 1012,7 hPa 0,0 l/m 0 min 0 min 15 W/m 11,3 km/h (2 Bft) 97,87 %
25.11.2017 16:20 5,7 C 5,0 C 3,9 C 88 % 0 lf 1012,7 hPa 0,0 l/m 0 min 0 min 13 W/m 24,8 km/h (4 Bft) 100,00 %
25.11.2017 16:22 5,7 C 5,0 C 3,9 C 88 % 0 lf 1012,8 hPa 0,0 l/m 0 min 0 min 12 W/m 13,5 km/h (3 Bft) 97,87 %
25.11.2017 16:24 5,6 C 5,0 C 3,9 C 88 % 0 lf 1012,9 hPa 0,0 l/m 0 min 0 min 11 W/m 18,0 km/h (3 Bft) 97,87 %
25.11.2017 16:26 5,6 C 5,0 C 3,9 C 88 % 0 lf 1012,9 hPa 0,0 l/m 0 min 0 min 8 W/m 18,0 km/h (3 Bft) 95,74 %
25.11.2017 16:28 5,6 C 5,0 C 3,9 C 88 % 0 lf 1012,8 hPa 0,0 l/m 0 min 0 min 7 W/m 20,3 km/h (4 Bft) 95,65 %
25.11.2017 16:30 5,6 C 5,0 C 3,9 C 88 % 0 lf 1012,9 hPa 0,0 l/m 0 min 0 min 7 W/m 22,5 km/h (4 Bft) 97,87 %
25.11.2017 16:32 5,6 C 5,0 C 3,9 C 88 % 0 lf 1013,0 hPa 0,0 l/m 0 min 0 min 4 W/m 24,8 km/h (4 Bft) 97,87 %
25.11.2017 16:34 5,6 C 5,0 C 3,9 C 88 % 0 lf 1013,1 hPa 0,0 l/m 0 min 0 min 0 W/m 20,3 km/h (4 Bft) 95,74 %
25.11.2017 16:36 5,6 C 5,0 C 4,4 C 88 % 0 lf 1013,1 hPa 0,0 l/m 0 min 0 min 0 W/m 13,5 km/h (3 Bft) 97,87 %
25.11.2017 16:38 5,5 C 5,6 C 4,4 C 89 % 0 lf 1013,1 hPa 0,0 l/m 0 min 0 min 0 W/m 18,0 km/h (3 Bft) 95,65 %
25.11.2017 16:40 5,5 C 5,6 C 4,4 C 89 % 0 lf 1013,1 hPa 0,0 l/m 0 min 0 min 0 W/m 20,3 km/h (4 Bft) 95,74 %
25.11.2017 16:42 5,5 C 5,0 C 3,9 C 89 % 0 lf 1013,1 hPa 0,0 l/m 0 min 0 min 0 W/m 20,3 km/h (4 Bft) 93,62 %
25.11.2017 16:44 5,5 C 5,0 C 3,9 C 88 % 0 lf 1013,2 hPa 0,0 l/m 0 min 0 min 0 W/m 22,5 km/h (4 Bft) 95,74 %
25.11.2017 16:46 5,4 C 5,0 C 3,9 C 88 % 0 lf 1013,1 hPa 0,0 l/m 0 min 0 min 0 W/m 22,5 km/h (4 Bft) 95,74 %
25.11.2017 16:48 5,4 C 5,0 C 3,9 C 88 % 0 lf 1013,2 hPa 0,0 l/m 0 min 0 min 0 W/m 24,8 km/h (4 Bft) 97,87 %
25.11.2017 16:50 5,3 C 5,0 C 3,9 C 88 % 0 lf 1013,2 hPa 0,0 l/m 0 min 0 min 0 W/m 24,8 km/h (4 Bft) 97,83 %
25.11.2017 16:52 5,3 C 5,0 C 3,9 C 87 % 0 lf 1013,2 hPa 0,0 l/m 0 min 0 min 0 W/m 27,0 km/h (4 Bft) 97,87 %
25.11.2017 16:54 5,2 C 5,0 C 3,3 C 87 % 0 lf 1013,2 hPa 0,0 l/m 0 min 0 min 0 W/m 31,5 km/h (5 Bft) 95,74 %
25.11.2017 16:56 5,1 C 4,4 C 3,3 C 86 % 0 lf 1013,2 hPa 0,0 l/m 0 min 0 min 0 W/m 22,5 km/h (4 Bft) 95,74 %
25.11.2017 16:58 5,1 C 4,4 C 3,3 C 85 % 0 lf 1013,2 hPa 0,0 l/m 0 min 0 min 0 W/m 29,3 km/h (5 Bft) 95,74 %
25.11.2017 17:00 5,1 C 4,4 C 3,3 C 85 % 0 lf 1013,2 hPa 0,0 l/m 0 min 0 min 0 W/m 13,5 km/h (3 Bft) 93,62 %
25.11.2017 17:02 5,0 C 4,4 C 3,3 C 85 % 0 lf 1013,2 hPa 0,0 l/m 0 min 0 min 0 W/m 15,8 km/h (3 Bft) 93,48 %
25.11.2017 17:04 5,0 C 4,4 C 3,3 C 85 % 0 lf 1013,2 hPa 0,0 l/m 0 min 0 min 0 W/m 13,5 km/h (3 Bft) 93,62 %
25.11.2017 17:06 4,9 C 4,4 C 3,3 C 85 % 0 lf 1013,2 hPa 0,0 l/m 0 min 0 min 0 W/m 22,5 km/h (4 Bft) 95,74 %
25.11.2017 17:08 4,9 C 4,4 C 3,3 C 85 % 0 lf 1013,2 hPa 0,0 l/m 0 min 0 min 0 W/m 18,0 km/h (3 Bft) 91,49 %
25.11.2017 17:10 4,9 C 4,4 C 3,3 C 85 % 0 lf 1013,2 hPa 0,0 l/m 0 min 0 min 0 W/m 9,0 km/h (2 Bft) 93,62 %
25.11.2017 17:12 4,9 C 4,4 C 3,3 C 85 % 0 lf 1013,2 hPa 0,0 l/m 0 min 0 min 0 W/m 20,3 km/h (4 Bft) 95,74 %
25.11.2017 17:14 4,8 C 4,4 C 3,3 C 85 % 0 lf 1013,3 hPa 0,0 l/m 0 min 0 min 0 W/m 15,8 km/h (3 Bft) 95,65 %
25.11.2017 17:16 4,8 C 4,4 C 3,3 C 85 % 0 lf 1013,3 hPa 0,0 l/m 0 min 0 min 0 W/m 11,3 km/h (2 Bft) 91,49 %
25.11.2017 17:18 4,8 C 4,4 C 2,8 C 85 % 0 lf 1013,4 hPa 0,0 l/m 0 min 0 min 0 W/m 11,3 km/h (2 Bft) 93,62 %
25.11.2017 17:20 4,8 C 3,9 C 2,8 C 85 % 0 lf 1013,3 hPa 0,0 l/m 0 min 0 min 0 W/m 6,8 km/h (2 Bft) 95,74 %
25.11.2017 17:22 4,8 C 3,9 C 2,8 C 85 % 0 lf 1013,3 hPa 0,0 l/m 0 min 0 min 0 W/m 9,0 km/h (2 Bft) 95,74 %
25.11.2017 17:24 4,7 C 3,9 C 2,8 C 85 % 0 lf 1013,4 hPa 0,0 l/m 0 min 0 min 0 W/m 11,3 km/h (2 Bft) 89,36 %
25.11.2017 17:26 4,7 C 3,9 C 2,8 C 85 % 0 lf 1013,4 hPa 0,0 l/m 0 min 0 min 0 W/m 20,3 km/h (4 Bft) 91,30 %
25.11.2017 17:28 4,7 C 3,9 C 2,8 C 86 % 0 lf 1013,4 hPa 0,0 l/m 0 min 0 min 0 W/m 11,3 km/h (2 Bft) 95,74 %
25.11.2017 17:30 4,7 C 3,9 C 2,8 C 86 % 0 lf 1013,4 hPa 0,0 l/m 0 min 0 min 0 W/m 11,3 km/h (2 Bft) 95,74 %
25.11.2017 17:32 4,7 C 3,9 C 2,8 C 86 % 0 lf 1013,4 hPa 0,0 l/m 0 min 0 min 0 W/m 9,0 km/h (2 Bft) 93,62 %
25.11.2017 17:34 4,6 C 3,9 C 2,8 C 86 % 0 lf 1013,5 hPa 0,0 l/m 0 min 0 min 0 W/m 9,0 km/h (2 Bft) 95,74 %
25.11.2017 17:36 4,6 C 3,9 C 2,8 C 86 % 0 lf 1013,6 hPa 0,0 l/m 0 min 0 min 0 W/m 11,3 km/h (2 Bft) 95,65 %
25.11.2017 17:38 4,6 C 3,9 C 2,8 C 86 % 0 lf 1013,6 hPa 0,0 l/m 0 min 0 min 0 W/m 9,0 km/h (2 Bft) 95,74 %
25.11.2017 17:40 4,6 C 3,9 C 2,8 C 86 % 0 lf 1013,6 hPa 0,0 l/m 0 min 0 min 0 W/m 11,3 km/h (2 Bft) 95,74 %
25.11.2017 17:42 4,5 C 3,9 C 2,8 C 86 % 0 lf 1013,6 hPa 0,0 l/m 0 min 0 min 0 W/m 11,3 km/h (2 Bft) 93,62 %
25.11.2017 17:44 4,4 C 3,3 C 2,8 C 86 % 0 lf 1013,7 hPa 0,0 l/m 0 min 0 min 0 W/m 9,0 km/h (2 Bft) 95,74 %
25.11.2017 17:46 4,4 C 3,3 C 2,2 C 87 % 0 lf 1013,7 hPa 0,0 l/m 0 min 0 min 0 W/m 9,0 km/h (2 Bft) 95,74 %
25.11.2017 17:48 4,4 C 3,3 C 2,2 C 87 % 0 lf 1013,7 hPa 0,0 l/m 0 min 0 min 0 W/m 9,0 km/h (2 Bft) 100,00 %
25.11.2017 17:50 4,4 C 3,3 C 2,2 C 87 % 0 lf 1013,8 hPa 0,0 l/m 0 min 0 min 0 W/m 6,8 km/h (2 Bft) 97,87 %
25.11.2017 17:52 4,3 C 3,3 C 2,2 C 87 % 0 lf 1013,8 hPa 0,0 l/m 0 min 0 min 0 W/m 11,3 km/h (2 Bft) 95,74 %
25.11.2017 17:54 4,3 C 3,3 C 2,2 C 87 % 0 lf 1013,9 hPa 0,0 l/m 0 min 0 min 0 W/m 9,0 km/h (2 Bft) 95,74 %
25.11.2017 17:56 4,3 C 3,3 C 2,2 C 87 % 0 lf 1014,0 hPa 0,0 l/m 0 min 0 min 0 W/m 11,3 km/h (2 Bft) 97,87 %
25.11.2017 17:58 4,2 C 3,3 C 2,2 C 87 % 0 lf 1014,0 hPa 0,0 l/m 0 min 0 min 0 W/m 9,0 km/h (2 Bft) 93,62 %
25.11.2017 18:00 4,2 C 3,3 C 2,2 C 87 % 0 lf 1014,1 hPa 0,0 l/m 0 min 0 min 0 W/m 13,5 km/h (3 Bft) 95,65 %
25.11.2017 18:02 4,2 C 3,3 C 2,2 C 87 % 0 lf 1014,1 hPa 0,0 l/m 0 min 0 min 0 W/m 13,5 km/h (3 Bft) 97,87 %
25.11.2017 18:04 4,2 C 3,3 C 2,2 C 87 % 0 lf 1014,1 hPa 0,0 l/m 0 min 0 min 0 W/m 13,5 km/h (3 Bft) 97,87 %
25.11.2017 18:06 4,1 C 3,3 C 2,2 C 87 % 0 lf 1014,1 hPa 0,0 l/m 0 min 0 min 0 W/m 11,3 km/h (2 Bft) 97,87 %
25.11.2017 18:10 4,1 C 3,3 C 2,2 C 88 % 0 lf 1014,1 hPa 0,0 l/m 0 min 0 min 0 W/m 15,8 km/h (3 Bft) 94,79 %
25.11.2017 18:12 4,0 C 3,3 C 2,2 C 88 % 0 lf 1014,1 hPa 0,0 l/m 0 min 0 min 0 W/m 11,3 km/h (2 Bft) 95,74 %
25.11.2017 18:14 4,0 C 3,3 C 2,2 C 88 % 0 lf 1014,1 hPa 0,0 l/m 0 min 0 min 0 W/m 13,5 km/h (3 Bft) 93,62 %
25.11.2017 18:16 4,0 C 3,3 C 2,2 C 88 % 0 lf 1014,2 hPa 0,0 l/m 0 min 0 min 0 W/m 13,5 km/h (3 Bft) 93,62 %
25.11.2017 18:18 3,9 C 3,3 C 2,2 C 88 % 0 lf 1014,2 hPa 0,0 l/m 0 min 0 min 0 W/m 11,3 km/h (2 Bft) 95,74 %
25.11.2017 18:20 3,9 C 3,3 C 2,2 C 88 % 0 lf 1014,2 hPa 0,0 l/m 0 min 0 min 0 W/m 20,3 km/h (4 Bft) 97,87 %
25.11.2017 18:22 3,9 C 3,3 C 2,2 C 88 % 0 lf 1014,2 hPa 0,0 l/m 0 min 0 min 0 W/m 18,0 km/h (3 Bft) 95,65 %
25.11.2017 18:24 3,9 C 3,3 C 2,2 C 88 % 0 lf 1014,2 hPa 0,0 l/m 0 min 0 min 0 W/m 11,3 km/h (2 Bft) 95,74 %
25.11.2017 18:26 3,9 C 3,3 C 2,2 C 89 % 0 lf 1014,2 hPa 0,0 l/m 0 min 0 min 0 W/m 13,5 km/h (3 Bft) 93,62 %
25.11.2017 18:28 3,9 C 3,3 C 2,2 C 89 % 0 lf 1014,2 hPa 0,0 l/m 0 min 0 min 0 W/m 13,5 km/h (3 Bft) 95,74 %
25.11.2017 18:30 3,9 C 3,3 C 2,2 C 89 % 0 lf 1014,2 hPa 0,0 l/m 0 min 0 min 0 W/m 13,5 km/h (3 Bft) 95,74 %
25.11.2017 18:32 3,8 C 3,3 C 2,2 C 89 % 0 lf 1014,2 hPa 0,0 l/m 0 min 0 min 0 W/m 15,8 km/h (3 Bft) 95,74 %
25.11.2017 18:34 3,8 C 3,3 C 2,2 C 89 % 0 lf 1014,3 hPa 0,0 l/m 0 min 0 min 0 W/m 15,8 km/h (3 Bft) 95,65 %
25.11.2017 18:36 3,8 C 3,3 C 2,2 C 89 % 0 lf 1014,3 hPa 0,0 l/m 0 min 0 min 0 W/m 15,8 km/h (3 Bft) 97,87 %
25.11.2017 18:38 3,8 C 3,3 C 2,2 C 89 % 0 lf 1014,2 hPa 0,0 l/m 0 min 0 min 0 W/m 13,5 km/h (3 Bft) 97,87 %
25.11.2017 18:40 3,8 C 3,3 C 2,2 C 89 % 0 lf 1014,3 hPa 0,0 l/m 0 min 0 min 0 W/m 15,8 km/h (3 Bft) 100,00 %
25.11.2017 18:42 3,8 C 3,3 C 2,2 C 89 % 0 lf 1014,3 hPa 0,0 l/m 0 min 0 min 0 W/m 15,8 km/h (3 Bft) 100,00 %
25.11.2017 18:44 3,7 C 3,3 C 2,2 C 89 % 0 lf 1014,3 hPa 0,0 l/m 0 min 0 min 0 W/m 15,8 km/h (3 Bft) 97,87 %
25.11.2017 18:46 3,7 C 3,3 C 2,2 C 89 % 0 lf 1014,3 hPa 0,0 l/m 0 min 0 min 0 W/m 15,8 km/h (3 Bft) 100,00 %
25.11.2017 18:48 3,7 C 3,3 C 2,2 C 89 % 0 lf 1014,3 hPa 0,0 l/m 0 min 0 min 0 W/m 18,0 km/h (3 Bft) 100,00 %
25.11.2017 18:50 3,7 C 3,3 C 1,7 C 89 % 0 lf 1014,3 hPa 0,0 l/m 0 min 0 min 0 W/m 15,8 km/h (3 Bft) 95,74 %
25.11.2017 18:52 3,7 C 2,8 C 1,7 C 89 % 0 lf 1014,4 hPa 0,0 l/m 0 min 0 min 0 W/m 18,0 km/h (3 Bft) 93,62 %
25.11.2017 18:54 3,6 C 2,8 C 1,7 C 89 % 0 lf 1014,4 hPa 0,0 l/m 0 min 0 min 0 W/m 15,8 km/h (3 Bft) 100,00 %
25.11.2017 18:56 3,6 C 2,8 C 1,7 C 89 % 0 lf 1014,4 hPa 0,0 l/m 0 min 0 min 0 W/m 18,0 km/h (3 Bft) 100,00 %
25.11.2017 18:58 3,6 C 2,8 C 1,7 C 89 % 0 lf 1014,4 hPa 0,0 l/m 0 min 0 min 0 W/m 18,0 km/h (3 Bft) 100,00 %
25.11.2017 19:00 3,5 C 2,8 C 1,7 C 89 % 0 lf 1014,5 hPa 0,0 l/m 0 min 0 min 0 W/m 18,0 km/h (3 Bft) 95,74 %
25.11.2017 19:02 3,5 C 2,8 C 1,7 C 89 % 0 lf 1014,6 hPa 0,0 l/m 0 min 0 min 0 W/m 15,8 km/h (3 Bft) 100,00 %
25.11.2017 19:04 3,4 C 2,8 C 1,7 C 89 % 0 lf 1014,6 hPa 0,0 l/m 0 min 0 min 0 W/m 20,3 km/h (4 Bft) 100,00 %
25.11.2017 19:06 3,4 C 2,8 C 1,7 C 89 % 0 lf 1014,7 hPa 0,0 l/m 0 min 0 min 0 W/m 11,3 km/h (2 Bft) 95,74 %
25.11.2017 19:08 3,4 C 2,8 C 1,7 C 89 % 0 lf 1014,7 hPa 0,0 l/m 0 min 0 min 0 W/m 13,5 km/h (3 Bft) 100,00 %
25.11.2017 19:10 3,4 C 2,8 C 1,7 C 89 % 0 lf 1014,7 hPa 0,0 l/m 0 min 0 min 0 W/m 13,5 km/h (3 Bft) 100,00 %
25.11.2017 19:12 3,4 C 2,8 C 1,7 C 89 % 0 lf 1014,7 hPa 0,0 l/m 0 min 0 min 0 W/m 15,8 km/h (3 Bft) 100,00 %
25.11.2017 19:14 3,3 C 2,8 C 1,7 C 89 % 0 lf 1014,7 hPa 0,0 l/m 0 min 0 min 0 W/m 15,8 km/h (3 Bft) 100,00 %
25.11.2017 19:16 3,3 C 2,8 C 1,7 C 89 % 0 lf 1014,7 hPa 0,0 l/m 0 min 0 min 0 W/m 13,5 km/h (3 Bft) 100,00 %
25.11.2017 19:18 3,3 C 2,8 C 1,7 C 89 % 0 lf 1014,8 hPa 0,0 l/m 0 min 0 min 0 W/m 11,3 km/h (2 Bft) 100,00 %
25.11.2017 19:20 3,3 C 2,2 C 1,1 C 89 % 0 lf 1014,7 hPa 0,0 l/m 0 min 0 min 0 W/m 15,8 km/h (3 Bft) 100,00 %
25.11.2017 19:22 3,3 C 2,2 C 1,1 C 89 % 0 lf 1014,8 hPa 0,0 l/m 0 min 0 min 0 W/m 13,5 km/h (3 Bft) 97,87 %
25.11.2017 19:24 3,2 C 2,8 C 1,1 C 89 % 0 lf 1014,8 hPa 0,0 l/m 0 min 0 min 0 W/m 18,0 km/h (3 Bft) 100,00 %
25.11.2017 19:26 3,2 C 2,2 C 1,1 C 89 % 0 lf 1014,8 hPa 0,0 l/m 0 min 0 min 0 W/m 11,3 km/h (2 Bft) 97,87 %
25.11.2017 19:28 3,2 C 2,2 C 1,1 C 89 % 0 lf 1014,8 hPa 0,0 l/m 0 min 0 min 0 W/m 18,0 km/h (3 Bft) 100,00 %
25.11.2017 19:30 3,2 C 2,2 C 1,1 C 89 % 0 lf 1014,9 hPa 0,0 l/m 0 min 0 min 0 W/m 13,5 km/h (3 Bft) 100,00 %
25.11.2017 19:32 3,1 C 2,2 C 1,1 C 89 % 0 lf 1014,9 hPa 0,0 l/m 0 min 0 min 0 W/m 20,3 km/h (4 Bft) 97,83 %
25.11.2017 19:34 3,1 C 2,2 C 1,1 C 89 % 0 lf 1014,9 hPa 0,0 l/m 0 min 0 min 0 W/m 18,0 km/h (3 Bft) 100,00 %
25.11.2017 19:36 3,1 C 2,2 C 1,1 C 89 % 0 lf 1014,9 hPa 0,0 l/m 0 min 0 min 0 W/m 18,0 km/h (3 Bft) 100,00 %
25.11.2017 19:38 3,1 C 2,2 C 1,1 C 90 % 0 lf 1014,9 hPa 0,0 l/m 0 min 0 min 0 W/m 15,8 km/h (3 Bft) 100,00 %
25.11.2017 19:40 3,0 C 2,2 C 1,1 C 90 % 0 lf 1014,9 hPa 0,0 l/m 0 min 0 min 0 W/m 15,8 km/h (3 Bft) 100,00 %
25.11.2017 19:42 3,0 C 2,2 C 1,1 C 90 % 0 lf 1014,9 hPa 0,0 l/m 0 min 0 min 0 W/m 18,0 km/h (3 Bft) 97,87 %
25.11.2017 19:44 3,0 C 2,2 C 1,1 C 90 % 0 lf 1014,9 hPa 0,0 l/m 0 min 0 min 0 W/m 18,0 km/h (3 Bft) 95,65 %
25.11.2017 19:46 3,0 C 2,2 C 1,1 C 90 % 0 lf 1015,0 hPa 0,0 l/m 0 min 0 min 0 W/m 13,5 km/h (3 Bft) 97,87 %
25.11.2017 19:48 2,9 C 2,2 C 1,1 C 90 % 0 lf 1015,0 hPa 0,0 l/m 0 min 0 min 0 W/m 18,0 km/h (3 Bft) 100,00 %
25.11.2017 19:50 2,9 C 2,2 C 1,1 C 90 % 0 lf 1015,0 hPa 0,0 l/m 0 min 0 min 0 W/m 18,0 km/h (3 Bft) 100,00 %
25.11.2017 19:52 2,9 C 2,2 C 1,1 C 90 % 0 lf 1015,0 hPa 0,0 l/m 0 min 0 min 0 W/m 22,5 km/h (4 Bft) 100,00 %
25.11.2017 19:54 2,9 C 2,2 C 1,1 C 90 % 0 lf 1015,1 hPa 0,0 l/m 0 min 0 min 0 W/m 22,5 km/h (4 Bft) 97,87 %
25.11.2017 19:56 2,9 C 2,2 C 1,1 C 90 % 0 lf 1015,0 hPa 0,0 l/m 0 min 0 min 0 W/m 18,0 km/h (3 Bft) 97,83 %
25.11.2017 19:58 2,9 C 2,2 C 1,1 C 91 % 0 lf 1015,1 hPa 0,0 l/m 0 min 0 min 0 W/m 13,5 km/h (3 Bft) 95,74 %
25.11.2017 20:00 2,9 C 2,2 C 1,1 C 91 % 0 lf 1015,0 hPa 0,0 l/m 0 min 0 min 0 W/m 18,0 km/h (3 Bft) 91,49 %
25.11.2017 20:02 2,9 C 2,2 C 1,1 C 91 % 0 lf 1015,1 hPa 0,0 l/m 0 min 0 min 0 W/m 18,0 km/h (3 Bft) 95,74 %
25.11.2017 20:04 2,8 C 2,2 C 1,1 C 91 % 0 lf 1015,1 hPa 0,0 l/m 0 min 0 min 0 W/m 15,8 km/h (3 Bft) 95,74 %
25.11.2017 20:06 2,8 C 2,2 C 1,1 C 91 % 0 lf 1015,1 hPa 0,0 l/m 0 min 0 min 0 W/m 15,8 km/h (3 Bft) 95,74 %
25.11.2017 20:08 2,8 C 2,2 C 1,1 C 91 % 0 lf 1015,1 hPa 0,0 l/m 0 min 0 min 0 W/m 15,8 km/h (3 Bft) 95,65 %
25.11.2017 20:10 2,8 C 2,2 C 1,1 C 91 % 0 lf 1015,2 hPa 0,0 l/m 0 min 0 min 0 W/m 15,8 km/h (3 Bft) 95,74 %
25.11.2017 20:12 2,8 C 2,2 C 1,1 C 91 % 0 lf 1015,2 hPa 0,0 l/m 0 min 0 min 0 W/m 18,0 km/h (3 Bft) 93,62 %
25.11.2017 20:14 2,8 C 2,2 C 1,1 C 91 % 0 lf 1015,2 hPa 0,0 l/m 0 min 0 min 0 W/m 15,8 km/h (3 Bft) 95,74 %
25.11.2017 20:16 2,8 C 2,2 C 1,1 C 91 % 0 lf 1015,2 hPa 0,0 l/m 0 min 0 min 0 W/m 18,0 km/h (3 Bft) 95,74 %
25.11.2017 20:18 2,8 C 2,2 C 1,1 C 91 % 0 lf 1015,3 hPa 0,0 l/m 0 min 0 min 0 W/m 20,3 km/h (4 Bft) 91,49 %
25.11.2017 20:20 2,8 C 2,2 C 1,1 C 92 % 0 lf 1015,3 hPa 0,0 l/m 0 min 0 min 0 W/m 18,0 km/h (3 Bft) 93,48 %
25.11.2017 20:22 2,7 C 2,2 C 1,1 C 92 % 0 lf 1015,3 hPa 0,0 l/m 0 min 0 min 0 W/m 18,0 km/h (3 Bft) 91,49 %
25.11.2017 20:24 2,7 C 2,2 C 1,1 C 92 % 0 lf 1015,4 hPa 0,0 l/m 0 min 0 min 0 W/m 22,5 km/h (4 Bft) 91,49 %
25.11.2017 20:26 2,7 C 2,2 C 1,1 C 92 % 0 lf 1015,4 hPa 0,0 l/m 0 min 0 min 0 W/m 18,0 km/h (3 Bft) 95,74 %
25.11.2017 20:28 2,7 C 2,2 C 1,1 C 92 % 0 lf 1015,4 hPa 0,0 l/m 0 min 0 min 0 W/m 15,8 km/h (3 Bft) 95,83 %
25.11.2017 20:30 2,7 C 2,2 C 1,1 C 92 % 0 lf 1015,4 hPa 0,0 l/m 0 min 0 min 0 W/m 18,0 km/h (3 Bft) 93,62 %
25.11.2017 20:32 2,7 C 2,2 C 1,1 C 92 % 0 lf 1015,5 hPa 0,0 l/m 0 min 0 min 0 W/m 20,3 km/h (4 Bft) 95,74 %
25.11.2017 20:34 2,7 C 2,2 C 1,1 C 92 % 0 lf 1015,5 hPa 0,0 l/m 0 min 0 min 0 W/m 15,8 km/h (3 Bft) 93,62 %
25.11.2017 20:36 2,7 C 2,2 C 1,1 C 92 % 0 lf 1015,5 hPa 0,0 l/m 0 min 0 min 0 W/m 15,8 km/h (3 Bft) 95,74 %
25.11.2017 20:38 2,7 C 2,2 C 1,1 C 92 % 0 lf 1015,5 hPa 0,0 l/m 0 min 0 min 0 W/m 20,3 km/h (4 Bft) 95,65 %
25.11.2017 20:40 2,7 C 2,2 C 1,1 C 92 % 0 lf 1015,6 hPa 0,0 l/m 0 min 0 min 0 W/m 18,0 km/h (3 Bft) 97,87 %
25.11.2017 20:42 2,6 C 2,2 C 1,1 C 92 % 0 lf 1015,7 hPa 0,0 l/m 0 min 0 min 0 W/m 18,0 km/h (3 Bft) 93,62 %
25.11.2017 20:44 2,6 C 2,2 C 1,1 C 92 % 0 lf 1015,6 hPa 0,0 l/m 0 min 0 min 0 W/m 13,5 km/h (3 Bft) 95,74 %
25.11.2017 20:46 2,6 C 2,2 C 1,1 C 92 % 0 lf 1015,7 hPa 0,0 l/m 0 min 0 min 0 W/m 15,8 km/h (3 Bft) 95,74 %
25.11.2017 20:48 2,6 C 2,2 C 1,1 C 92 % 0 lf 1015,7 hPa 0,0 l/m 0 min 0 min 0 W/m 18,0 km/h (3 Bft) 91,49 %
25.11.2017 20:50 2,6 C 2,2 C 1,1 C 92 % 0 lf 1015,6 hPa 0,0 l/m 0 min 0 min 0 W/m 15,8 km/h (3 Bft) 91,30 %
25.11.2017 20:52 2,6 C 2,2 C 1,1 C 92 % 0 lf 1015,7 hPa 0,0 l/m 0 min 0 min 0 W/m 15,8 km/h (3 Bft) 93,62 %
25.11.2017 20:54 2,6 C 2,2 C 1,1 C 92 % 0 lf 1015,7 hPa 0,0 l/m 0 min 0 min 0 W/m 18,0 km/h (3 Bft) 95,74 %
25.11.2017 20:56 2,6 C 2,2 C 1,1 C 92 % 0 lf 1015,7 hPa 0,0 l/m 0 min 0 min 0 W/m 24,8 km/h (4 Bft) 95,74 %
25.11.2017 20:58 2,6 C 2,2 C 1,1 C 92 % 0 lf 1015,7 hPa 0,0 l/m 0 min 0 min 0 W/m 20,3 km/h (4 Bft) 97,87 %
25.11.2017 21:00 2,6 C 2,2 C 1,1 C 92 % 0 lf 1015,7 hPa 0,0 l/m 0 min 0 min 0 W/m 18,0 km/h (3 Bft) 97,87 %
25.11.2017 21:02 2,6 C 2,2 C 1,1 C 92 % 0 lf 1015,8 hPa 0,0 l/m 0 min 0 min 0 W/m 22,5 km/h (4 Bft) 97,83 %
25.11.2017 21:04 2,6 C 2,2 C 1,1 C 92 % 0 lf 1015,8 hPa 0,0 l/m 0 min 0 min 0 W/m 20,3 km/h (4 Bft) 97,87 %
25.11.2017 21:06 2,6 C 2,2 C 1,1 C 93 % 0 lf 1015,9 hPa 0,0 l/m 0 min 0 min 0 W/m 24,8 km/h (4 Bft) 97,87 %
25.11.2017 21:08 2,7 C 2,2 C 1,1 C 93 % 0 lf 1015,9 hPa 0,0 l/m 0 min 0 min 0 W/m 20,3 km/h (4 Bft) 97,87 %
25.11.2017 21:10 2,7 C 2,8 C 1,1 C 93 % 0 lf 1015,9 hPa 0,0 l/m 0 min 0 min 0 W/m 22,5 km/h (4 Bft) 97,87 %
25.11.2017 21:12 2,7 C 2,8 C 1,7 C 93 % 0 lf 1015,9 hPa 0,0 l/m 0 min 0 min 0 W/m 22,5 km/h (4 Bft) 100,00 %
25.11.2017 21:14 2,7 C 2,8 C 1,7 C 93 % 0 lf 1016,0 hPa 0,0 l/m 0 min 0 min 0 W/m 20,3 km/h (4 Bft) 97,83 %
25.11.2017 21:16 2,7 C 2,8 C 1,7 C 93 % 0 lf 1016,0 hPa 0,0 l/m 0 min 0 min 0 W/m 20,3 km/h (4 Bft) 97,87 %
25.11.2017 21:18 2,7 C 2,8 C 1,7 C 93 % 0 lf 1016,0 hPa 0,0 l/m 0 min 0 min 0 W/m 20,3 km/h (4 Bft) 95,74 %
25.11.2017 21:20 2,7 C 2,8 C 1,1 C 93 % 0 lf 1016,0 hPa 0,0 l/m 0 min 0 min 0 W/m 18,0 km/h (3 Bft) 97,87 %
25.11.2017 21:22 2,7 C 2,8 C 1,1 C 93 % 0 lf 1016,0 hPa 0,0 l/m 0 min 0 min 0 W/m 22,5 km/h (4 Bft) 95,74 %
25.11.2017 21:24 2,7 C 2,8 C 1,7 C 93 % 0 lf 1016,1 hPa 0,0 l/m 0 min 0 min 0 W/m 22,5 km/h (4 Bft) 97,87 %
25.11.2017 21:26 2,8 C 2,8 C 1,7 C 93 % 0 lf 1016,1 hPa 0,0 l/m 0 min 0 min 0 W/m 22,5 km/h (4 Bft) 97,83 %
25.11.2017 21:28 2,8 C 2,8 C 1,1 C 93 % 0 lf 1016,1 hPa 0,0 l/m 0 min 0 min 0 W/m 20,3 km/h (4 Bft) 95,74 %
25.11.2017 21:30 2,8 C 2,8 C 1,7 C 93 % 0 lf 1016,1 hPa 0,0 l/m 0 min 0 min 0 W/m 20,3 km/h (4 Bft) 97,87 %
25.11.2017 21:32 2,8 C 2,8 C 1,7 C 93 % 0 lf 1016,2 hPa 0,0 l/m 0 min 0 min 0 W/m 24,8 km/h (4 Bft) 97,87 %
25.11.2017 21:34 2,8 C 2,8 C 1,7 C 93 % 0 lf 1016,3 hPa 0,0 l/m 0 min 0 min 0 W/m 18,0 km/h (3 Bft) 95,74 %
25.11.2017 21:36 2,8 C 2,8 C 1,7 C 93 % 0 lf 1016,3 hPa 0,0 l/m 0 min 0 min 0 W/m 22,5 km/h (4 Bft) 97,87 %
25.11.2017 21:38 2,8 C 2,8 C 1,7 C 93 % 0 lf 1016,3 hPa 0,0 l/m 0 min 0 min 0 W/m 18,0 km/h (3 Bft) 97,83 %
25.11.2017 21:40 2,8 C 2,8 C 1,7 C 93 % 0 lf 1016,2 hPa 0,0 l/m 0 min 0 min 0 W/m 20,3 km/h (4 Bft) 95,74 %
25.11.2017 21:42 2,8 C 2,8 C 1,7 C 93 % 0 lf 1016,3 hPa 0,0 l/m 0 min 0 min 0 W/m 24,8 km/h (4 Bft) 97,87 %
25.11.2017 21:44 2,8 C 2,8 C 1,7 C 93 % 0 lf 1016,4 hPa 0,0 l/m 0 min 0 min 0 W/m 22,5 km/h (4 Bft) 93,62 %
25.11.2017 21:46 2,8 C 2,8 C 2,2 C 93 % 0 lf 1016,5 hPa 0,0 l/m 0 min 0 min 0 W/m 13,5 km/h (3 Bft) 95,74 %
25.11.2017 21:48 2,9 C 2,8 C 2,2 C 93 % 0 lf 1016,5 hPa 0,0 l/m 0 min 0 min 0 W/m 18,0 km/h (3 Bft) 95,65 %
25.11.2017 21:50 2,9 C 2,8 C 2,2 C 93 % 0 lf 1016,6 hPa 0,0 l/m 0 min 0 min 0 W/m 15,8 km/h (3 Bft) 95,74 %
25.11.2017 21:52 2,9 C 2,8 C 2,2 C 93 % 0 lf 1016,5 hPa 0,0 l/m 0 min 0 min 0 W/m 15,8 km/h (3 Bft) 95,74 %
25.11.2017 21:54 2,9 C 2,8 C 2,2 C 93 % 14 lf 1016,5 hPa 0,0 l/m 0 min 2 min 0 W/m 15,8 km/h (3 Bft) 95,74 %
25.11.2017 21:56 2,9 C 2,8 C 1,7 C 93 % 15 lf 1016,6 hPa 0,2 l/m 0 min 2 min 0 W/m 20,3 km/h (4 Bft) 93,62 %
25.11.2017 21:58 3,0 C 2,8 C 1,7 C 93 % 15 lf 1016,6 hPa 0,0 l/m 0 min 2 min 0 W/m 31,5 km/h (5 Bft) 95,74 %
25.11.2017 22:00 3,0 C 2,8 C 1,7 C 93 % 15 lf 1016,6 hPa 0,0 l/m 0 min 2 min 0 W/m 24,8 km/h (4 Bft) 95,65 %
25.11.2017 22:02 3,0 C 2,2 C 1,7 C 93 % 15 lf 1016,6 hPa 0,0 l/m 0 min 2 min 0 W/m 18,0 km/h (3 Bft) 93,62 %
25.11.2017 22:04 2,9 C 2,2 C 1,7 C 93 % 15 lf 1016,5 hPa 0,0 l/m 0 min 0 min 0 W/m 18,0 km/h (3 Bft) 95,74 %
25.11.2017 22:06 2,9 C 2,2 C 1,7 C 93 % 15 lf 1016,5 hPa 0,0 l/m 0 min 2 min 0 W/m 15,8 km/h (3 Bft) 95,74 %
25.11.2017 22:08 2,9 C 2,2 C 1,1 C 93 % 15 lf 1016,6 hPa 0,0 l/m 0 min 2 min 0 W/m 15,8 km/h (3 Bft) 97,87 %
25.11.2017 22:10 2,9 C 2,2 C 1,1 C 93 % 15 lf 1016,5 hPa 0,0 l/m 0 min 2 min 0 W/m 20,3 km/h (4 Bft) 97,87 %
25.11.2017 22:12 2,9 C 2,2 C 1,1 C 93 % 15 lf 1016,5 hPa 0,0 l/m 0 min 2 min 0 W/m 13,5 km/h (3 Bft) 97,83 %
25.11.2017 22:14 2,9 C 2,2 C 1,1 C 93 % 15 lf 1016,5 hPa 0,0 l/m 0 min 0 min 0 W/m 15,8 km/h (3 Bft) 95,74 %
25.11.2017 22:16 2,9 C 2,2 C 1,1 C 93 % 15 lf 1016,5 hPa 0,0 l/m 0 min 0 min 0 W/m 13,5 km/h (3 Bft) 100,00 %
25.11.2017 22:18 2,9 C 2,2 C 1,1 C 93 % 15 lf 1016,5 hPa 0,0 l/m 0 min 0 min 0 W/m 13,5 km/h (3 Bft) 93,62 %
25.11.2017 22:20 2,9 C 2,2 C 1,1 C 93 % 15 lf 1016,5 hPa 0,0 l/m 0 min 0 min 0 W/m 11,3 km/h (2 Bft) 100,00 %
25.11.2017 22:22 2,9 C 2,2 C 1,1 C 93 % 15 lf 1016,5 hPa 0,0 l/m 0 min 0 min 0 W/m 15,8 km/h (3 Bft) 97,87 %
25.11.2017 22:24 2,9 C 2,2 C 1,1 C 93 % 15 lf 1016,5 hPa 0,0 l/m 0 min 0 min 0 W/m 18,0 km/h (3 Bft) 97,83 %
25.11.2017 22:26 2,9 C 2,2 C 1,7 C 93 % 15 lf 1016,4 hPa 0,0 l/m 0 min 0 min 0 W/m 24,8 km/h (4 Bft) 100,00 %
25.11.2017 22:28 2,9 C 2,2 C 1,7 C 93 % 15 lf 1016,5 hPa 0,0 l/m 0 min 0 min 0 W/m 15,8 km/h (3 Bft) 100,00 %
25.11.2017 22:30 2,9 C 2,2 C 1,7 C 93 % 15 lf 1016,5 hPa 0,0 l/m 0 min 0 min 0 W/m 18,0 km/h (3 Bft) 93,62 %
25.11.2017 22:32 2,9 C 2,2 C 1,7 C 94 % 15 lf 1016,5 hPa 0,0 l/m 0 min 0 min 0 W/m 22,5 km/h (4 Bft) 97,87 %
25.11.2017 22:34 2,9 C 2,2 C 1,7 C 94 % 15 lf 1016,5 hPa 0,0 l/m 0 min 0 min 0 W/m 22,5 km/h (4 Bft) 97,87 %
25.11.2017 22:36 2,9 C 2,2 C 1,1 C 93 % 15 lf 1016,5 hPa 0,0 l/m 0 min 0 min 0 W/m 20,3 km/h (4 Bft) 100,00 %
25.11.2017 22:38 2,9 C 2,2 C 1,1 C 94 % 15 lf 1016,5 hPa 0,0 l/m 0 min 0 min 0 W/m 18,0 km/h (3 Bft) 97,87 %
25.11.2017 22:40 2,9 C 2,2 C 1,1 C 94 % 15 lf 1016,5 hPa 0,0 l/m 0 min 0 min 0 W/m 13,5 km/h (3 Bft) 100,00 %
25.11.2017 22:42 2,9 C 2,2 C 1,1 C 94 % 15 lf 1016,4 hPa 0,0 l/m 0 min 0 min 0 W/m 18,0 km/h (3 Bft) 93,62 %
25.11.2017 22:44 2,9 C 2,2 C 1,1 C 94 % 15 lf 1016,4 hPa 0,0 l/m 0 min 0 min 0 W/m 18,0 km/h (3 Bft) 100,00 %
25.11.2017 22:46 2,9 C 2,2 C 1,1 C 94 % 15 lf 1016,4 hPa 0,0 l/m 0 min 0 min 0 W/m 15,8 km/h (3 Bft) 93,62 %
25.11.2017 22:48 2,8 C 2,2 C 1,1 C 94 % 15 lf 1016,5 hPa 0,0 l/m 0 min 0 min 0 W/m 22,5 km/h (4 Bft) 97,83 %
25.11.2017 22:50 2,8 C 2,2 C 1,1 C 94 % 15 lf 1016,4 hPa 0,0 l/m 0 min 0 min 0 W/m 29,3 km/h (5 Bft) 97,87 %
25.11.2017 22:52 2,8 C 2,2 C 1,1 C 94 % 15 lf 1016,4 hPa 0,0 l/m 0 min 0 min 0 W/m 20,3 km/h (4 Bft) 95,74 %
25.11.2017 22:54 2,8 C 2,2 C 1,1 C 94 % 15 lf 1016,4 hPa 0,0 l/m 0 min 0 min 0 W/m 18,0 km/h (3 Bft) 97,87 %
25.11.2017 22:56 2,8 C 2,2 C 1,1 C 94 % 15 lf 1016,4 hPa 0,0 l/m 0 min 0 min 0 W/m 22,5 km/h (4 Bft) 95,74 %
25.11.2017 22:58 2,8 C 2,2 C 1,1 C 94 % 15 lf 1016,5 hPa 0,0 l/m 0 min 0 min 0 W/m 27,0 km/h (4 Bft) 95,65 %
25.11.2017 23:00 2,8 C 2,2 C 1,1 C 94 % 15 lf 1016,6 hPa 0,0 l/m 0 min 0 min 0 W/m 27,0 km/h (4 Bft) 93,62 %
25.11.2017 23:02 2,8 C 2,2 C 1,1 C 94 % 15 lf 1016,5 hPa 0,0 l/m 0 min 0 min 0 W/m 22,5 km/h (4 Bft) 95,74 %
25.11.2017 23:04 2,8 C 2,2 C 1,1 C 94 % 15 lf 1016,6 hPa 0,0 l/m 0 min 0 min 0 W/m 22,5 km/h (4 Bft) 93,62 %
25.11.2017 23:06 2,8 C 2,2 C 1,1 C 94 % 15 lf 1016,6 hPa 0,0 l/m 0 min 0 min 0 W/m 22,5 km/h (4 Bft) 91,49 %
25.11.2017 23:08 2,8 C 2,2 C 1,1 C 94 % 15 lf 1016,6 hPa 0,0 l/m 0 min 0 min 0 W/m 29,3 km/h (5 Bft) 95,74 %
25.11.2017 23:10 2,8 C 2,2 C 1,1 C 94 % 15 lf 1016,7 hPa 0,0 l/m 0 min 0 min 0 W/m 18,0 km/h (3 Bft) 93,48 %
25.11.2017 23:12 2,7 C 2,2 C 1,1 C 94 % 15 lf 1016,7 hPa 0,0 l/m 0 min 0 min 0 W/m 20,3 km/h (4 Bft) 95,74 %
25.11.2017 23:14 2,7 C 2,2 C 1,1 C 94 % 15 lf 1016,7 hPa 0,0 l/m 0 min 0 min 0 W/m 24,8 km/h (4 Bft) 95,74 %
25.11.2017 23:16 2,7 C 2,2 C 1,1 C 94 % 15 lf 1016,8 hPa 0,0 l/m 0 min 0 min 0 W/m 22,5 km/h (4 Bft) 97,87 %
25.11.2017 23:18 2,7 C 2,2 C 1,1 C 94 % 15 lf 1016,8 hPa 0,0 l/m 0 min 0 min 0 W/m 24,8 km/h (4 Bft) 93,62 %
25.11.2017 23:20 2,7 C 2,2 C 1,1 C 94 % 15 lf 1016,9 hPa 0,0 l/m 0 min 0 min 0 W/m 20,3 km/h (4 Bft) 91,49 %
25.11.2017 23:22 2,7 C 2,2 C 1,1 C 94 % 15 lf 1016,9 hPa 0,0 l/m 0 min 0 min 0 W/m 18,0 km/h (3 Bft) 93,48 %
25.11.2017 23:24 2,7 C 2,2 C 1,1 C 94 % 15 lf 1017,0 hPa 0,0 l/m 0 min 0 min 0 W/m 24,8 km/h (4 Bft) 95,74 %
25.11.2017 23:26 2,7 C 2,2 C 1,1 C 94 % 15 lf 1016,9 hPa 0,0 l/m 0 min 0 min 0 W/m 31,5 km/h (5 Bft) 95,74 %
25.11.2017 23:28 2,7 C 2,2 C 1,1 C 94 % 15 lf 1016,9 hPa 0,0 l/m 0 min 0 min 0 W/m 22,5 km/h (4 Bft) 93,62 %
25.11.2017 23:30 2,7 C 2,2 C 1,1 C 94 % 15 lf 1016,8 hPa 0,0 l/m 0 min 0 min 0 W/m 22,5 km/h (4 Bft) 93,62 %
25.11.2017 23:32 2,7 C 2,2 C 1,1 C 94 % 15 lf 1016,9 hPa 0,0 l/m 0 min 0 min 0 W/m 24,8 km/h (4 Bft) 97,87 %
25.11.2017 23:34 2,7 C 2,2 C 1,1 C 94 % 15 lf 1016,9 hPa 0,0 l/m 0 min 0 min 0 W/m 18,0 km/h (3 Bft) 93,48 %
25.11.2017 23:36 2,7 C 2,2 C 1,1 C 94 % 15 lf 1017,0 hPa 0,0 l/m 0 min 0 min 0 W/m 24,8 km/h (4 Bft) 91,49 %
25.11.2017 23:38 2,7 C 2,2 C 1,1 C 94 % 15 lf 1016,9 hPa 0,0 l/m 0 min 0 min 0 W/m 24,8 km/h (4 Bft) 91,49 %
25.11.2017 23:40 2,7 C 2,2 C 1,1 C 94 % 15 lf 1016,9 hPa 0,0 l/m 0 min 0 min 0 W/m 22,5 km/h (4 Bft) 95,74 %
25.11.2017 23:42 2,7 C 2,2 C 1,1 C 94 % 15 lf 1016,9 hPa 0,0 l/m 0 min 0 min 0 W/m 20,3 km/h (4 Bft) 95,74 %
25.11.2017 23:44 2,7 C 2,2 C 1,1 C 94 % 15 lf 1017,0 hPa 0,0 l/m 0 min 0 min 0 W/m 27,0 km/h (4 Bft) 95,74 %
25.11.2017 23:46 2,7 C 2,2 C 1,1 C 94 % 15 lf 1016,9 hPa 0,0 l/m 0 min 0 min 0 W/m 22,5 km/h (4 Bft) 89,13 %
25.11.2017 23:48 2,7 C 2,2 C 1,1 C 94 % 15 lf 1016,9 hPa 0,0 l/m 0 min 0 min 0 W/m 20,3 km/h (4 Bft) 97,87 %
25.11.2017 23:50 2,7 C 2,2 C 1,1 C 94 % 15 lf 1017,0 hPa 0,0 l/m 0 min 0 min 0 W/m 18,0 km/h (3 Bft) 97,87 %
25.11.2017 23:52 2,7 C 2,2 C 1,1 C 94 % 15 lf 1017,0 hPa 0,0 l/m 0 min 0 min 0 W/m 22,5 km/h (4 Bft) 97,87 %
25.11.2017 23:54 2,7 C 2,2 C 1,1 C 95 % 15 lf 1017,0 hPa 0,0 l/m 0 min 0 min 0 W/m 27,0 km/h (4 Bft) 97,87 %
25.11.2017 23:56 2,7 C 2,2 C 1,1 C 95 % 15 lf 1017,0 hPa 0,0 l/m 0 min 0 min 0 W/m 22,5 km/h (4 Bft) 95,65 %
25.11.2017 23:58 2,7 C 2,2 C 1,1 C 95 % 14 lf 1017,1 hPa 0,0 l/m 0 min 0 min 0 W/m 24,8 km/h (4 Bft) 97,87 %
_ Min-Zeit 20:42 19:20 19:20 16:58 10:52 05:52 - - - - 00:00 11:36
Minimum _ 2,6 C 2,2 C 1,1 C 85 % 0 lf 1008,0 hPa - - - - 0,0 km/h (0 Bft) 85,71 %
_ Max-Zeit 13:30 13:08 13:06 00:12 00:00 23:58 01:18 11:52 04:05 13:08 16:54 00:56
Maximum _ 7,0 C 14,4 C 6,7 C 97 % 15 lf 1017,1 hPa 0,4 l/m 5 min 5 min 375 W/m 31,5 km/h
W-NW (5 Bft)
100,00 %
Durchschnitt _ 4,7 C 4,9 C 3,3 C 93 % 8 lf 1011,6 hPa #4,4 l/m #2:21 h #3:48 h 98 W/m 13,6 km/h (3 Bft) 96,48 %
© 2017 W. Hausmann